Wetterdaten: Donnerstag, 19.08.2021
Datum Zeit Temp. Aussen Temp. o. S. Temp +5cm Feuchte Auss Luftdruck Regen Sonnenschein Regendauer Solar Windben Empfang
19.08.2021 00:00 17,3 C 16,7 C 15,6 C 90 % 1014,6 hPa 0,0 l/m 0 min 0 min 0 W/m 9,7 km/h (2 Bft) 96,15 %
19.08.2021 00:02 17,3 C 16,7 C 15,6 C 90 % 1014,6 hPa 0,0 l/m 0 min 0 min 0 W/m 3,2 km/h (1 Bft) 11,76 %
19.08.2021 00:04 17,3 C 16,7 C 15,6 C 90 % 1014,6 hPa 0,0 l/m 0 min 0 min 0 W/m 6,4 km/h (2 Bft) 87,18 %
19.08.2021 00:07 17,3 C 16,7 C 15,6 C 90 % 1014,6 hPa 0,0 l/m 0 min 0 min 0 W/m 6,4 km/h (2 Bft) 94,94 %
19.08.2021 00:08 17,3 C 16,7 C 15,6 C 90 % 1014,6 hPa 0,0 l/m 0 min 0 min 0 W/m 6,4 km/h (2 Bft) 95,83 %
19.08.2021 00:10 17,3 C 16,7 C 15,6 C 90 % 1014,5 hPa 0,0 l/m 0 min 0 min 0 W/m 6,4 km/h (2 Bft) 97,83 %
19.08.2021 00:12 17,3 C 16,7 C 15,6 C 90 % 1014,6 hPa 0,0 l/m 0 min 0 min 0 W/m 9,7 km/h (2 Bft) 97,87 %
19.08.2021 00:14 17,3 C 16,7 C 15,6 C 90 % 1014,5 hPa 0,0 l/m 0 min 0 min 0 W/m 12,9 km/h (3 Bft) 97,87 %
19.08.2021 00:16 17,3 C 16,7 C 15,6 C 91 % 1014,6 hPa 0,0 l/m 0 min 0 min 0 W/m 12,9 km/h (3 Bft) 97,87 %
19.08.2021 00:18 17,3 C 16,7 C 15,6 C 91 % 1014,5 hPa 0,0 l/m 0 min 0 min 0 W/m 9,7 km/h (2 Bft) 97,87 %
19.08.2021 00:20 17,3 C 16,7 C 15,6 C 91 % 1014,6 hPa 0,0 l/m 0 min 0 min 0 W/m 16,1 km/h (3 Bft) 97,87 %
19.08.2021 00:22 17,3 C 16,7 C 15,6 C 91 % 1014,6 hPa 0,0 l/m 0 min 0 min 0 W/m 3,2 km/h (1 Bft) 97,83 %
19.08.2021 00:24 17,3 C 16,7 C 15,6 C 91 % 1014,6 hPa 0,0 l/m 0 min 0 min 0 W/m 6,4 km/h (2 Bft) 97,87 %
19.08.2021 00:26 17,3 C 16,7 C 15,6 C 91 % 1014,6 hPa 0,0 l/m 0 min 0 min 0 W/m 16,1 km/h (3 Bft) 97,87 %
19.08.2021 00:28 17,2 C 16,7 C 15,6 C 91 % 1014,6 hPa 0,0 l/m 0 min 0 min 0 W/m 3,2 km/h (1 Bft) 97,87 %
19.08.2021 00:30 17,3 C 16,7 C 15,6 C 91 % 1014,6 hPa 0,0 l/m 0 min 0 min 0 W/m 9,7 km/h (2 Bft) 95,74 %
19.08.2021 00:32 17,3 C 16,7 C 15,6 C 91 % 1014,6 hPa 0,0 l/m 0 min 0 min 0 W/m 9,7 km/h (2 Bft) 97,83 %
19.08.2021 00:34 17,3 C 16,7 C 15,6 C 91 % 1014,5 hPa 0,0 l/m 0 min 0 min 0 W/m 9,7 km/h (2 Bft) 100,00 %
19.08.2021 00:36 17,3 C 16,7 C 15,6 C 91 % 1014,6 hPa 0,0 l/m 0 min 0 min 0 W/m 6,4 km/h (2 Bft) 97,87 %
19.08.2021 00:38 17,3 C 16,7 C 15,6 C 91 % 1014,5 hPa 0,0 l/m 0 min 0 min 0 W/m 16,1 km/h (3 Bft) 97,87 %
19.08.2021 00:40 17,3 C 16,7 C 15,6 C 91 % 1014,5 hPa 0,0 l/m 0 min 0 min 0 W/m 12,9 km/h (3 Bft) 97,87 %
19.08.2021 00:42 17,3 C 16,7 C 15,6 C 91 % 1014,5 hPa 0,0 l/m 0 min 0 min 0 W/m 12,9 km/h (3 Bft) 100,00 %
19.08.2021 00:44 17,2 C 16,7 C 15,6 C 91 % 1014,4 hPa 0,0 l/m 0 min 0 min 0 W/m 16,1 km/h (3 Bft) 100,00 %
19.08.2021 00:46 17,2 C 16,7 C 15,6 C 91 % 1014,5 hPa 0,0 l/m 0 min 0 min 0 W/m 16,1 km/h (3 Bft) 100,00 %
19.08.2021 00:48 17,2 C 16,7 C 15,6 C 92 % 1014,4 hPa 0,0 l/m 0 min 0 min 0 W/m 16,1 km/h (3 Bft) 100,00 %
19.08.2021 00:50 17,2 C 16,7 C 15,6 C 92 % 1014,5 hPa 0,0 l/m 0 min 0 min 0 W/m 9,7 km/h (2 Bft) 100,00 %
19.08.2021 00:52 17,2 C 16,7 C 15,6 C 92 % 1014,4 hPa 0,0 l/m 0 min 0 min 0 W/m 12,9 km/h (3 Bft) 100,00 %
19.08.2021 00:54 17,2 C 16,7 C 15,6 C 92 % 1014,5 hPa 0,0 l/m 0 min 0 min 0 W/m 12,9 km/h (3 Bft) 100,00 %
19.08.2021 00:56 17,2 C 16,7 C 15,6 C 92 % 1014,4 hPa 0,0 l/m 0 min 0 min 0 W/m 12,9 km/h (3 Bft) 100,00 %
19.08.2021 00:58 17,2 C 16,7 C 15,6 C 92 % 1014,4 hPa 0,0 l/m 0 min 0 min 0 W/m 12,9 km/h (3 Bft) 100,00 %
19.08.2021 01:00 17,2 C 16,7 C 15,6 C 92 % 1014,4 hPa 0,0 l/m 0 min 0 min 0 W/m 12,9 km/h (3 Bft) 100,00 %
19.08.2021 01:02 17,3 C 16,7 C 15,6 C 92 % 1014,4 hPa 0,0 l/m 0 min 0 min 0 W/m 16,1 km/h (3 Bft) 100,00 %
19.08.2021 01:04 17,3 C 16,7 C 15,6 C 92 % 1014,4 hPa 0,0 l/m 0 min 0 min 0 W/m 12,9 km/h (3 Bft) 100,00 %
19.08.2021 01:06 17,3 C 16,7 C 15,6 C 92 % 1014,4 hPa 0,0 l/m 0 min 0 min 0 W/m 12,9 km/h (3 Bft) 100,00 %
19.08.2021 01:08 17,3 C 16,7 C 15,6 C 92 % 1014,4 hPa 0,0 l/m 0 min 0 min 0 W/m 19,3 km/h (3 Bft) 100,00 %
19.08.2021 01:10 17,3 C 16,7 C 15,6 C 92 % 1014,4 hPa 0,0 l/m 0 min 0 min 0 W/m 12,9 km/h (3 Bft) 100,00 %
19.08.2021 01:12 17,3 C 16,7 C 15,6 C 92 % 1014,4 hPa 0,0 l/m 0 min 0 min 0 W/m 6,4 km/h (2 Bft) 97,87 %
19.08.2021 01:14 17,2 C 16,7 C 15,6 C 92 % 1014,4 hPa 0,0 l/m 0 min 0 min 0 W/m 9,7 km/h (2 Bft) 100,00 %
19.08.2021 01:16 17,3 C 16,7 C 15,6 C 92 % 1014,4 hPa 0,0 l/m 0 min 0 min 0 W/m 16,1 km/h (3 Bft) 100,00 %
19.08.2021 01:18 17,3 C 16,7 C 15,6 C 92 % 1014,4 hPa 0,0 l/m 0 min 0 min 0 W/m 3,2 km/h (1 Bft) 100,00 %
19.08.2021 01:20 17,3 C 16,7 C 15,6 C 92 % 1014,4 hPa 0,0 l/m 0 min 0 min 0 W/m 12,9 km/h (3 Bft) 100,00 %
19.08.2021 01:22 17,3 C 16,7 C 15,6 C 92 % 1014,4 hPa 0,0 l/m 0 min 0 min 0 W/m 12,9 km/h (3 Bft) 97,87 %
19.08.2021 01:24 17,3 C 16,7 C 15,6 C 92 % 1014,5 hPa 0,0 l/m 0 min 0 min 0 W/m 6,4 km/h (2 Bft) 100,00 %
19.08.2021 01:26 17,3 C 16,7 C 15,6 C 92 % 1014,4 hPa 0,0 l/m 0 min 0 min 0 W/m 9,7 km/h (2 Bft) 100,00 %
19.08.2021 01:28 17,3 C 16,7 C 15,6 C 92 % 1014,5 hPa 0,0 l/m 0 min 0 min 0 W/m 12,9 km/h (3 Bft) 100,00 %
19.08.2021 01:30 17,3 C 16,7 C 15,6 C 92 % 1014,4 hPa 0,0 l/m 0 min 0 min 0 W/m 6,4 km/h (2 Bft) 100,00 %
19.08.2021 01:32 17,3 C 16,7 C 15,6 C 92 % 1014,4 hPa 0,0 l/m 0 min 0 min 0 W/m 12,9 km/h (3 Bft) 100,00 %
19.08.2021 01:34 17,3 C 16,7 C 15,6 C 92 % 1014,4 hPa 0,0 l/m 0 min 0 min 0 W/m 6,4 km/h (2 Bft) 97,87 %
19.08.2021 01:36 17,2 C 16,7 C 15,6 C 92 % 1014,4 hPa 0,0 l/m 0 min 0 min 0 W/m 12,9 km/h (3 Bft) 97,87 %
19.08.2021 01:38 17,2 C 16,7 C 15,6 C 92 % 1014,4 hPa 0,0 l/m 0 min 0 min 0 W/m 6,4 km/h (2 Bft) 97,87 %
19.08.2021 01:40 17,2 C 16,7 C 15,6 C 93 % 1014,4 hPa 0,0 l/m 0 min 0 min 0 W/m 9,7 km/h (2 Bft) 97,87 %
19.08.2021 01:42 17,2 C 16,7 C 15,6 C 93 % 1014,3 hPa 0,0 l/m 0 min 0 min 0 W/m 16,1 km/h (3 Bft) 97,83 %
19.08.2021 01:44 17,2 C 16,7 C 15,6 C 93 % 1014,4 hPa 0,0 l/m 0 min 0 min 0 W/m 3,2 km/h (1 Bft) 97,87 %
19.08.2021 01:46 17,2 C 16,7 C 15,6 C 93 % 1014,4 hPa 0,0 l/m 0 min 0 min 0 W/m 6,4 km/h (2 Bft) 97,87 %
19.08.2021 01:48 17,2 C 16,7 C 15,6 C 93 % 1014,4 hPa 0,0 l/m 0 min 0 min 0 W/m 9,7 km/h (2 Bft) 51,16 %
19.08.2021 01:50 17,2 C 16,7 C 15,6 C 93 % 1014,4 hPa 0,0 l/m 0 min 0 min 0 W/m 12,9 km/h (3 Bft) 97,87 %
19.08.2021 01:52 17,2 C 16,7 C 15,6 C 93 % 1014,3 hPa 0,0 l/m 0 min 0 min 0 W/m 3,2 km/h (1 Bft) 97,87 %
19.08.2021 01:54 17,2 C 16,7 C 15,6 C 93 % 1014,3 hPa 0,0 l/m 0 min 0 min 0 W/m 9,7 km/h (2 Bft) 97,87 %
19.08.2021 01:56 17,2 C 16,7 C 15,6 C 93 % 1014,3 hPa 0,0 l/m 0 min 0 min 0 W/m 9,7 km/h (2 Bft) 97,83 %
19.08.2021 01:58 17,2 C 16,7 C 15,6 C 93 % 1014,3 hPa 0,0 l/m 0 min 0 min 0 W/m 6,4 km/h (2 Bft) 95,74 %
19.08.2021 02:00 17,2 C 16,7 C 15,6 C 93 % 1014,3 hPa 0,0 l/m 0 min 0 min 0 W/m 12,9 km/h (3 Bft) 97,87 %
19.08.2021 02:02 17,2 C 16,7 C 15,6 C 93 % 1014,3 hPa 0,0 l/m 0 min 0 min 0 W/m 16,1 km/h (3 Bft) 97,87 %
19.08.2021 02:04 17,2 C 16,7 C 15,6 C 93 % 1014,3 hPa 0,0 l/m 0 min 0 min 0 W/m 9,7 km/h (2 Bft) 91,84 %
19.08.2021 02:06 17,2 C 16,7 C 15,6 C 93 % 1014,2 hPa 0,0 l/m 0 min 0 min 0 W/m 6,4 km/h (2 Bft) 91,30 %
19.08.2021 02:08 17,2 C 16,7 C 15,6 C 93 % 1014,2 hPa 0,0 l/m 0 min 0 min 0 W/m 9,7 km/h (2 Bft) 97,87 %
19.08.2021 02:10 17,2 C 16,7 C 15,6 C 93 % 1014,2 hPa 0,0 l/m 0 min 0 min 0 W/m 6,4 km/h (2 Bft) 95,74 %
19.08.2021 02:12 17,2 C 16,7 C 15,6 C 93 % 1014,2 hPa 0,0 l/m 0 min 0 min 0 W/m 6,4 km/h (2 Bft) 95,74 %
19.08.2021 02:14 17,2 C 16,7 C 15,6 C 93 % 1014,2 hPa 0,0 l/m 0 min 0 min 0 W/m 6,4 km/h (2 Bft) 93,62 %
19.08.2021 02:16 17,3 C 16,7 C 15,6 C 93 % 1014,2 hPa 0,0 l/m 0 min 0 min 0 W/m 3,2 km/h (1 Bft) 95,65 %
19.08.2021 02:18 17,3 C 16,7 C 15,6 C 93 % 1014,2 hPa 0,0 l/m 0 min 0 min 0 W/m 6,4 km/h (2 Bft) 93,62 %
19.08.2021 02:20 17,2 C 16,7 C 15,6 C 93 % 1014,2 hPa 0,0 l/m 0 min 0 min 0 W/m 6,4 km/h (2 Bft) 93,62 %
19.08.2021 02:22 17,3 C 16,7 C 15,6 C 93 % 1014,1 hPa 0,0 l/m 0 min 0 min 0 W/m 6,4 km/h (2 Bft) 93,62 %
19.08.2021 02:24 17,2 C 16,7 C 15,6 C 93 % 1014,2 hPa 0,0 l/m 0 min 0 min 0 W/m 16,1 km/h (3 Bft) 95,74 %
19.08.2021 02:26 17,2 C 16,7 C 15,6 C 93 % 1014,1 hPa 0,0 l/m 0 min 0 min 0 W/m 9,7 km/h (2 Bft) 95,74 %
19.08.2021 02:28 17,2 C 16,7 C 15,6 C 93 % 1014,1 hPa 0,0 l/m 0 min 0 min 0 W/m 6,4 km/h (2 Bft) 95,74 %
19.08.2021 02:30 17,2 C 16,7 C 15,6 C 93 % 1014,1 hPa 0,0 l/m 0 min 0 min 0 W/m 3,2 km/h (1 Bft) 93,48 %
19.08.2021 02:32 17,2 C 16,7 C 15,6 C 93 % 1014,1 hPa 0,0 l/m 0 min 0 min 0 W/m 6,4 km/h (2 Bft) 93,62 %
19.08.2021 02:34 17,2 C 16,7 C 15,6 C 93 % 1014,1 hPa 0,0 l/m 0 min 0 min 0 W/m 12,9 km/h (3 Bft) 95,74 %
19.08.2021 02:36 17,2 C 16,7 C 15,6 C 93 % 1014,1 hPa 0,0 l/m 0 min 0 min 0 W/m 12,9 km/h (3 Bft) 95,74 %
19.08.2021 02:38 17,2 C 16,7 C 15,6 C 93 % 1014,0 hPa 0,0 l/m 0 min 0 min 0 W/m 6,4 km/h (2 Bft) 95,74 %
19.08.2021 02:40 17,2 C 16,7 C 15,6 C 93 % 1014,0 hPa 0,0 l/m 0 min 0 min 0 W/m 12,9 km/h (3 Bft) 97,83 %
19.08.2021 02:42 17,2 C 16,7 C 15,6 C 93 % 1014,1 hPa 0,0 l/m 0 min 0 min 0 W/m 6,4 km/h (2 Bft) 95,74 %
19.08.2021 02:44 17,2 C 16,7 C 15,6 C 93 % 1014,1 hPa 0,0 l/m 0 min 0 min 0 W/m 6,4 km/h (2 Bft) 97,87 %
19.08.2021 02:46 17,2 C 16,7 C 15,6 C 93 % 1014,1 hPa 0,0 l/m 0 min 0 min 0 W/m 16,1 km/h (3 Bft) 95,74 %
19.08.2021 02:48 17,2 C 16,7 C 15,6 C 93 % 1014,0 hPa 0,0 l/m 0 min 0 min 0 W/m 12,9 km/h (3 Bft) 100,00 %
19.08.2021 02:50 17,2 C 16,7 C 15,6 C 93 % 1014,0 hPa 0,0 l/m 0 min 0 min 0 W/m 12,9 km/h (3 Bft) 97,87 %
19.08.2021 02:52 17,2 C 16,7 C 15,6 C 93 % 1014,0 hPa 0,0 l/m 0 min 0 min 0 W/m 6,4 km/h (2 Bft) 97,83 %
19.08.2021 02:54 17,2 C 16,7 C 15,6 C 93 % 1014,0 hPa 0,0 l/m 0 min 0 min 0 W/m 12,9 km/h (3 Bft) 97,87 %
19.08.2021 02:56 17,2 C 16,7 C 15,6 C 93 % 1014,0 hPa 0,0 l/m 0 min 0 min 0 W/m 9,7 km/h (2 Bft) 97,87 %
19.08.2021 02:58 17,2 C 16,7 C 15,6 C 93 % 1014,0 hPa 0,0 l/m 0 min 0 min 0 W/m 12,9 km/h (3 Bft) 95,74 %
19.08.2021 03:00 17,2 C 16,7 C 15,6 C 93 % 1014,0 hPa 0,0 l/m 0 min 0 min 0 W/m 6,4 km/h (2 Bft) 97,87 %
19.08.2021 03:02 17,3 C 16,7 C 15,6 C 93 % 1014,0 hPa 0,0 l/m 0 min 0 min 0 W/m 6,4 km/h (2 Bft) 97,87 %
19.08.2021 03:04 17,2 C 16,7 C 15,6 C 93 % 1013,9 hPa 0,0 l/m 0 min 0 min 0 W/m 6,4 km/h (2 Bft) 97,83 %
19.08.2021 03:06 17,3 C 16,7 C 15,6 C 93 % 1013,9 hPa 0,0 l/m 0 min 0 min 0 W/m 6,4 km/h (2 Bft) 97,87 %
19.08.2021 03:08 17,3 C 16,7 C 15,6 C 93 % 1013,9 hPa 0,0 l/m 0 min 0 min 0 W/m 9,7 km/h (2 Bft) 97,87 %
19.08.2021 03:10 17,3 C 16,7 C 15,6 C 93 % 1013,8 hPa 0,0 l/m 0 min 0 min 0 W/m 16,1 km/h (3 Bft) 100,00 %
19.08.2021 03:12 17,3 C 16,7 C 15,6 C 93 % 1013,9 hPa 0,0 l/m 0 min 0 min 0 W/m 12,9 km/h (3 Bft) 100,00 %
19.08.2021 03:14 17,3 C 16,7 C 15,6 C 93 % 1013,9 hPa 0,0 l/m 0 min 0 min 0 W/m 6,4 km/h (2 Bft) 100,00 %
19.08.2021 03:16 17,3 C 16,7 C 15,6 C 93 % 1013,9 hPa 0,0 l/m 0 min 0 min 0 W/m 9,7 km/h (2 Bft) 100,00 %
19.08.2021 03:18 17,3 C 16,7 C 15,6 C 92 % 1013,9 hPa 0,0 l/m 0 min 0 min 0 W/m 16,1 km/h (3 Bft) 100,00 %
19.08.2021 03:20 17,3 C 16,7 C 15,6 C 92 % 1013,9 hPa 0,0 l/m 0 min 0 min 0 W/m 16,1 km/h (3 Bft) 100,00 %
19.08.2021 03:22 17,3 C 16,7 C 15,6 C 92 % 1013,9 hPa 0,0 l/m 0 min 0 min 0 W/m 6,4 km/h (2 Bft) 100,00 %
19.08.2021 03:24 17,3 C 16,7 C 15,6 C 92 % 1013,9 hPa 0,0 l/m 0 min 0 min 0 W/m 12,9 km/h (3 Bft) 100,00 %
19.08.2021 03:26 17,3 C 16,7 C 15,6 C 92 % 1013,9 hPa 0,0 l/m 0 min 0 min 0 W/m 12,9 km/h (3 Bft) 100,00 %
19.08.2021 03:28 17,3 C 16,7 C 16,1 C 92 % 1013,9 hPa 0,0 l/m 0 min 0 min 0 W/m 6,4 km/h (2 Bft) 100,00 %
19.08.2021 03:30 17,3 C 16,7 C 16,1 C 92 % 1013,9 hPa 0,0 l/m 0 min 0 min 0 W/m 6,4 km/h (2 Bft) 100,00 %
19.08.2021 03:32 17,3 C 16,7 C 16,1 C 92 % 1013,9 hPa 0,0 l/m 0 min 0 min 0 W/m 6,4 km/h (2 Bft) 100,00 %
19.08.2021 03:34 17,3 C 16,7 C 15,6 C 92 % 1013,9 hPa 0,0 l/m 0 min 0 min 0 W/m 6,4 km/h (2 Bft) 100,00 %
19.08.2021 03:36 17,3 C 16,7 C 15,6 C 92 % 1013,9 hPa 0,0 l/m 0 min 0 min 0 W/m 12,9 km/h (3 Bft) 97,87 %
19.08.2021 03:38 17,3 C 16,7 C 15,6 C 92 % 1014,0 hPa 0,0 l/m 0 min 0 min 0 W/m 12,9 km/h (3 Bft) 100,00 %
19.08.2021 03:40 17,3 C 16,7 C 15,6 C 92 % 1013,9 hPa 0,0 l/m 0 min 0 min 0 W/m 3,2 km/h (1 Bft) 100,00 %
19.08.2021 03:42 17,3 C 16,7 C 15,6 C 92 % 1013,9 hPa 0,0 l/m 0 min 0 min 0 W/m 6,4 km/h (2 Bft) 100,00 %
19.08.2021 03:44 17,3 C 16,7 C 15,6 C 92 % 1013,9 hPa 0,0 l/m 0 min 0 min 0 W/m 16,1 km/h (3 Bft) 100,00 %
19.08.2021 03:46 17,3 C 16,7 C 15,6 C 92 % 1013,9 hPa 0,0 l/m 0 min 0 min 0 W/m 3,2 km/h (1 Bft) 100,00 %
19.08.2021 03:48 17,3 C 16,7 C 15,6 C 92 % 1013,9 hPa 0,0 l/m 0 min 0 min 0 W/m 9,7 km/h (2 Bft) 100,00 %
19.08.2021 03:50 17,3 C 16,7 C 15,6 C 92 % 1013,9 hPa 0,0 l/m 0 min 0 min 0 W/m 12,9 km/h (3 Bft) 100,00 %
19.08.2021 03:52 17,3 C 16,7 C 15,6 C 92 % 1013,9 hPa 0,0 l/m 0 min 0 min 0 W/m 6,4 km/h (2 Bft) 97,87 %
19.08.2021 03:54 17,3 C 16,7 C 15,6 C 92 % 1013,9 hPa 0,0 l/m 0 min 0 min 0 W/m 6,4 km/h (2 Bft) 100,00 %
19.08.2021 03:56 17,3 C 16,7 C 15,6 C 92 % 1013,9 hPa 0,0 l/m 0 min 0 min 0 W/m 12,9 km/h (3 Bft) 100,00 %
19.08.2021 03:58 17,3 C 16,7 C 15,6 C 92 % 1013,9 hPa 0,0 l/m 0 min 0 min 0 W/m 9,7 km/h (2 Bft) 100,00 %
19.08.2021 04:00 17,3 C 16,7 C 15,6 C 92 % 1013,8 hPa 0,0 l/m 0 min 0 min 0 W/m 9,7 km/h (2 Bft) 100,00 %
19.08.2021 04:02 17,3 C 16,7 C 15,6 C 92 % 1013,8 hPa 0,0 l/m 0 min 0 min 0 W/m 6,4 km/h (2 Bft) 97,06 %
19.08.2021 04:04 17,3 C 16,7 C 15,6 C 92 % 1013,8 hPa 0,0 l/m 0 min 0 min 0 W/m 6,4 km/h (2 Bft) 100,00 %
19.08.2021 04:06 17,3 C 16,7 C 15,6 C 92 % 1013,9 hPa 0,0 l/m 0 min 0 min 0 W/m 12,9 km/h (3 Bft) 97,87 %
19.08.2021 04:08 17,3 C 16,7 C 15,6 C 92 % 1013,9 hPa 0,0 l/m 0 min 0 min 0 W/m 6,4 km/h (2 Bft) 97,87 %
19.08.2021 04:10 17,3 C 16,7 C 15,6 C 92 % 1013,9 hPa 0,0 l/m 0 min 0 min 0 W/m 6,4 km/h (2 Bft) 97,87 %
19.08.2021 04:12 17,3 C 16,7 C 15,6 C 92 % 1013,9 hPa 0,0 l/m 0 min 0 min 0 W/m 9,7 km/h (2 Bft) 97,87 %
19.08.2021 04:14 17,3 C 16,7 C 15,6 C 92 % 1013,9 hPa 0,0 l/m 0 min 0 min 0 W/m 9,7 km/h (2 Bft) 95,65 %
19.08.2021 04:16 17,3 C 16,1 C 15,6 C 92 % 1013,9 hPa 0,0 l/m 0 min 0 min 0 W/m 6,4 km/h (2 Bft) 93,62 %
19.08.2021 04:18 17,2 C 16,1 C 15,6 C 92 % 1013,9 hPa 0,0 l/m 0 min 0 min 0 W/m 12,9 km/h (3 Bft) 97,87 %
19.08.2021 04:20 17,2 C 16,1 C 15,6 C 93 % 1013,9 hPa 0,0 l/m 0 min 0 min 0 W/m 6,4 km/h (2 Bft) 97,87 %
19.08.2021 04:22 17,2 C 16,1 C 15,6 C 93 % 1013,9 hPa 0,0 l/m 0 min 0 min 0 W/m 6,4 km/h (2 Bft) 95,74 %
19.08.2021 04:24 17,2 C 16,1 C 15,6 C 93 % 1013,9 hPa 0,0 l/m 0 min 2 min 0 W/m 6,4 km/h (2 Bft) 97,14 %
19.08.2021 04:26 17,1 C 16,1 C 15,6 C 93 % 1013,9 hPa 0,0 l/m 0 min 0 min 0 W/m 3,2 km/h (1 Bft) 93,10 %
19.08.2021 04:28 17,1 C 16,1 C 15,6 C 93 % 1013,9 hPa 0,0 l/m 0 min 0 min 0 W/m 6,4 km/h (2 Bft) 95,74 %
19.08.2021 04:30 17,1 C 16,1 C 15,6 C 93 % 1013,9 hPa 0,0 l/m 0 min 0 min 0 W/m 9,7 km/h (2 Bft) 94,29 %
19.08.2021 04:32 17,1 C 16,1 C 15,6 C 93 % 1013,9 hPa 0,0 l/m 0 min 0 min 0 W/m 12,9 km/h (3 Bft) 96,61 %
19.08.2021 04:34 17,1 C 16,1 C 15,6 C 93 % 1013,9 hPa 0,0 l/m 0 min 0 min 0 W/m 6,4 km/h (2 Bft) 95,74 %
19.08.2021 04:36 17,1 C 16,1 C 15,0 C 93 % 1013,9 hPa 0,0 l/m 0 min 0 min 0 W/m 6,4 km/h (2 Bft) 97,14 %
19.08.2021 04:38 17,0 C 16,1 C 15,0 C 93 % 1013,9 hPa 0,0 l/m 0 min 0 min 0 W/m 6,4 km/h (2 Bft) 98,28 %
19.08.2021 04:40 17,0 C 16,1 C 15,0 C 93 % 1013,9 hPa 0,0 l/m 0 min 2 min 0 W/m 3,2 km/h (1 Bft) 97,67 %
19.08.2021 04:42 17,0 C 16,1 C 15,0 C 94 % 1013,9 hPa 0,0 l/m 0 min 2 min 0 W/m 12,9 km/h (3 Bft) 95,74 %
19.08.2021 04:44 17,0 C 16,1 C 15,0 C 94 % 1013,9 hPa 0,0 l/m 0 min 2 min 0 W/m 16,1 km/h (3 Bft) 97,87 %
19.08.2021 04:46 17,0 C 16,1 C 15,0 C 94 % 1013,9 hPa 0,0 l/m 0 min 2 min 0 W/m 12,9 km/h (3 Bft) 97,87 %
19.08.2021 04:48 17,0 C 15,6 C 15,0 C 94 % 1013,7 hPa 0,2 l/m 0 min 0 min 0 W/m 6,4 km/h (2 Bft) 97,87 %
19.08.2021 04:50 16,9 C 15,6 C 15,0 C 94 % 1013,7 hPa 0,0 l/m 0 min 0 min 0 W/m 6,4 km/h (2 Bft) 95,65 %
19.08.2021 04:52 16,9 C 15,6 C 15,0 C 94 % 1013,7 hPa 0,0 l/m 0 min 0 min 0 W/m 6,4 km/h (2 Bft) 97,87 %
19.08.2021 04:54 16,9 C 15,6 C 15,0 C 94 % 1013,7 hPa 0,0 l/m 0 min 0 min 0 W/m 3,2 km/h (1 Bft) 97,87 %
19.08.2021 04:56 16,9 C 15,6 C 15,0 C 94 % 1013,7 hPa 0,0 l/m 0 min 0 min 0 W/m 3,2 km/h (1 Bft) 97,87 %
19.08.2021 04:58 16,9 C 15,6 C 15,0 C 95 % 1013,7 hPa 0,0 l/m 0 min 0 min 0 W/m 12,9 km/h (3 Bft) 97,87 %
19.08.2021 05:00 16,9 C 15,6 C 15,0 C 95 % 1013,7 hPa 0,0 l/m 0 min 0 min 0 W/m 3,2 km/h (1 Bft) 93,62 %
19.08.2021 05:02 16,8 C 15,6 C 15,0 C 95 % 1013,7 hPa 0,0 l/m 0 min 0 min 0 W/m 12,9 km/h (3 Bft) 97,83 %
19.08.2021 05:04 16,8 C 15,6 C 15,0 C 95 % 1013,7 hPa 0,0 l/m 0 min 0 min 0 W/m 3,2 km/h (1 Bft) 97,87 %
19.08.2021 05:06 16,8 C 15,6 C 15,0 C 95 % 1013,7 hPa 0,0 l/m 0 min 0 min 0 W/m 3,2 km/h (1 Bft) 97,87 %
19.08.2021 05:08 16,8 C 15,6 C 15,0 C 95 % 1013,7 hPa 0,0 l/m 0 min 0 min 0 W/m 6,4 km/h (2 Bft) 95,74 %
19.08.2021 05:10 16,8 C 15,6 C 15,0 C 95 % 1013,7 hPa 0,0 l/m 0 min 0 min 0 W/m 6,4 km/h (2 Bft) 100,00 %
19.08.2021 05:12 16,8 C 15,6 C 15,0 C 95 % 1013,7 hPa 0,0 l/m 0 min 0 min 0 W/m 3,2 km/h (1 Bft) 97,87 %
19.08.2021 05:14 16,8 C 15,6 C 15,0 C 95 % 1013,7 hPa 0,0 l/m 0 min 0 min 0 W/m 6,4 km/h (2 Bft) 100,00 %
19.08.2021 05:16 16,8 C 15,6 C 15,0 C 95 % 1013,7 hPa 0,0 l/m 0 min 0 min 0 W/m 6,4 km/h (2 Bft) 95,74 %
19.08.2021 05:18 16,7 C 15,6 C 15,0 C 95 % 1013,7 hPa 0,0 l/m 0 min 0 min 0 W/m 9,7 km/h (2 Bft) 97,87 %
19.08.2021 05:20 16,7 C 15,6 C 15,0 C 95 % 1013,7 hPa 0,0 l/m 0 min 0 min 0 W/m 0,0 km/h (0 Bft) 95,74 %
19.08.2021 05:22 16,7 C 15,6 C 15,0 C 95 % 1013,7 hPa 0,0 l/m 0 min 0 min 0 W/m 3,2 km/h (1 Bft) 97,87 %
19.08.2021 05:24 16,7 C 15,6 C 15,0 C 95 % 1013,6 hPa 0,0 l/m 0 min 0 min 0 W/m 6,4 km/h (2 Bft) 95,65 %
19.08.2021 05:26 16,7 C 15,6 C 15,0 C 95 % 1013,6 hPa 0,0 l/m 0 min 0 min 0 W/m 6,4 km/h (2 Bft) 97,87 %
19.08.2021 05:28 16,6 C 15,6 C 15,0 C 95 % 1013,6 hPa 0,0 l/m 0 min 0 min 0 W/m 6,4 km/h (2 Bft) 97,87 %
19.08.2021 05:30 16,6 C 15,6 C 15,0 C 95 % 1013,6 hPa 0,0 l/m 0 min 0 min 0 W/m 3,2 km/h (1 Bft) 97,87 %
19.08.2021 05:32 16,6 C 15,6 C 15,0 C 96 % 1013,6 hPa 0,0 l/m 0 min 0 min 0 W/m 6,4 km/h (2 Bft) 97,87 %
19.08.2021 05:34 16,6 C 15,6 C 15,0 C 96 % 1013,7 hPa 0,0 l/m 0 min 0 min 0 W/m 9,7 km/h (2 Bft) 97,87 %
19.08.2021 05:36 16,6 C 15,6 C 15,0 C 96 % 1013,7 hPa 0,0 l/m 0 min 0 min 0 W/m 6,4 km/h (2 Bft) 97,83 %
19.08.2021 05:38 16,6 C 15,6 C 15,0 C 96 % 1013,7 hPa 0,0 l/m 0 min 0 min 0 W/m 3,2 km/h (1 Bft) 95,74 %
19.08.2021 05:40 16,6 C 15,6 C 15,0 C 96 % 1013,6 hPa 0,0 l/m 0 min 0 min 0 W/m 6,4 km/h (2 Bft) 97,87 %
19.08.2021 05:42 16,6 C 15,6 C 15,0 C 96 % 1013,6 hPa 0,0 l/m 0 min 0 min 0 W/m 6,4 km/h (2 Bft) 97,87 %
19.08.2021 05:44 16,6 C 15,6 C 15,0 C 96 % 1013,6 hPa 0,0 l/m 0 min 0 min 0 W/m 9,7 km/h (2 Bft) 97,87 %
19.08.2021 05:46 16,6 C 15,6 C 15,0 C 96 % 1013,6 hPa 0,0 l/m 0 min 0 min 0 W/m 6,4 km/h (2 Bft) 97,87 %
19.08.2021 05:48 16,6 C 15,6 C 15,0 C 96 % 1013,6 hPa 0,0 l/m 0 min 0 min 0 W/m 9,7 km/h (2 Bft) 97,83 %
19.08.2021 05:50 16,6 C 15,6 C 15,0 C 96 % 1013,5 hPa 0,0 l/m 0 min 0 min 0 W/m 9,7 km/h (2 Bft) 97,87 %
19.08.2021 05:52 16,5 C 15,6 C 15,0 C 96 % 1013,6 hPa 0,0 l/m 0 min 0 min 0 W/m 6,4 km/h (2 Bft) 97,87 %
19.08.2021 05:54 16,5 C 15,6 C 15,0 C 96 % 1013,5 hPa 0,0 l/m 0 min 0 min 0 W/m 12,9 km/h (3 Bft) 95,74 %
19.08.2021 05:56 16,5 C 16,1 C 15,0 C 96 % 1013,5 hPa 0,0 l/m 0 min 0 min 0 W/m 3,2 km/h (1 Bft) 97,87 %
19.08.2021 05:58 16,5 C 16,1 C 15,0 C 96 % 1013,6 hPa 0,0 l/m 0 min 0 min 0 W/m 6,4 km/h (2 Bft) 95,74 %
19.08.2021 06:00 16,5 C 16,1 C 15,0 C 96 % 1013,5 hPa 0,0 l/m 0 min 0 min 0 W/m 12,9 km/h (3 Bft) 95,65 %
19.08.2021 06:02 16,5 C 16,1 C 15,0 C 96 % 1013,5 hPa 0,0 l/m 0 min 0 min 0 W/m 6,4 km/h (2 Bft) 95,83 %
19.08.2021 06:04 16,5 C 16,1 C 15,0 C 96 % 1013,5 hPa 0,0 l/m 0 min 0 min 0 W/m 12,9 km/h (3 Bft) 95,74 %
19.08.2021 06:08 16,5 C 16,1 C 15,0 C 96 % 1013,6 hPa 0,0 l/m 0 min 0 min 0 W/m 12,9 km/h (3 Bft) 95,74 %
19.08.2021 06:10 16,5 C 16,1 C 15,0 C 96 % 1013,6 hPa 0,0 l/m 0 min 0 min 0 W/m 6,4 km/h (2 Bft) 97,87 %
19.08.2021 06:12 16,5 C 16,1 C 15,0 C 96 % 1013,6 hPa 0,0 l/m 0 min 0 min 0 W/m 6,4 km/h (2 Bft) 97,83 %
19.08.2021 06:14 16,5 C 16,1 C 15,0 C 96 % 1013,6 hPa 0,0 l/m 0 min 0 min 0 W/m 3,2 km/h (1 Bft) 97,87 %
19.08.2021 06:16 16,5 C 16,1 C 15,0 C 96 % 1013,6 hPa 0,0 l/m 0 min 0 min 0 W/m 6,4 km/h (2 Bft) 95,74 %
19.08.2021 06:18 16,5 C 16,1 C 15,0 C 96 % 1013,6 hPa 0,0 l/m 0 min 0 min 0 W/m 3,2 km/h (1 Bft) 95,74 %
19.08.2021 06:20 16,5 C 16,1 C 15,0 C 96 % 1013,6 hPa 0,0 l/m 0 min 0 min 0 W/m 6,4 km/h (2 Bft) 97,87 %
19.08.2021 06:22 16,5 C 16,1 C 15,0 C 96 % 1013,6 hPa 0,0 l/m 0 min 0 min 0 W/m 3,2 km/h (1 Bft) 97,87 %
19.08.2021 06:24 16,5 C 16,1 C 15,0 C 96 % 1013,6 hPa 0,0 l/m 0 min 0 min 0 W/m 6,4 km/h (2 Bft) 97,83 %
19.08.2021 06:26 16,5 C 16,1 C 15,0 C 96 % 1013,7 hPa 0,0 l/m 0 min 0 min 0 W/m 6,4 km/h (2 Bft) 97,87 %
19.08.2021 06:28 16,5 C 16,1 C 15,0 C 96 % 1013,6 hPa 0,0 l/m 0 min 0 min 0 W/m 3,2 km/h (1 Bft) 97,87 %
19.08.2021 06:30 16,5 C 16,1 C 15,0 C 96 % 1013,6 hPa 0,0 l/m 0 min 0 min 0 W/m 3,2 km/h (1 Bft) 97,87 %
19.08.2021 06:32 16,5 C 16,1 C 15,0 C 96 % 1013,6 hPa 0,0 l/m 0 min 0 min 0 W/m 3,2 km/h (1 Bft) 100,00 %
19.08.2021 06:34 16,5 C 16,1 C 15,0 C 96 % 1013,6 hPa 0,0 l/m 0 min 0 min 0 W/m 3,2 km/h (1 Bft) 100,00 %
19.08.2021 06:36 16,5 C 16,1 C 15,0 C 96 % 1013,6 hPa 0,0 l/m 0 min 0 min 0 W/m 6,4 km/h (2 Bft) 100,00 %
19.08.2021 06:38 16,5 C 16,1 C 15,0 C 96 % 1013,6 hPa 0,0 l/m 0 min 0 min 0 W/m 3,2 km/h (1 Bft) 100,00 %
19.08.2021 06:40 16,5 C 16,1 C 15,0 C 96 % 1013,6 hPa 0,0 l/m 0 min 0 min 0 W/m 3,2 km/h (1 Bft) 100,00 %
19.08.2021 06:42 16,5 C 16,1 C 15,0 C 96 % 1013,6 hPa 0,0 l/m 0 min 0 min 0 W/m 6,4 km/h (2 Bft) 100,00 %
19.08.2021 06:44 16,5 C 16,1 C 15,0 C 96 % 1013,6 hPa 0,0 l/m 0 min 0 min 0 W/m 9,7 km/h (2 Bft) 100,00 %
19.08.2021 06:46 16,5 C 16,1 C 15,0 C 96 % 1013,6 hPa 0,0 l/m 0 min 0 min 0 W/m 6,4 km/h (2 Bft) 100,00 %
19.08.2021 06:48 16,5 C 16,1 C 15,0 C 96 % 1013,7 hPa 0,0 l/m 0 min 0 min 0 W/m 6,4 km/h (2 Bft) 100,00 %
19.08.2021 06:50 16,5 C 16,1 C 15,0 C 96 % 1013,7 hPa 0,0 l/m 0 min 0 min 0 W/m 3,2 km/h (1 Bft) 97,87 %
19.08.2021 06:52 16,5 C 16,1 C 15,0 C 96 % 1013,6 hPa 0,0 l/m 0 min 0 min 2 W/m 3,2 km/h (1 Bft) 100,00 %
19.08.2021 06:54 16,5 C 16,1 C 15,6 C 96 % 1013,7 hPa 0,0 l/m 0 min 0 min 5 W/m 6,4 km/h (2 Bft) 100,00 %
19.08.2021 06:56 16,5 C 16,1 C 15,6 C 96 % 1013,7 hPa 0,0 l/m 0 min 0 min 5 W/m 3,2 km/h (1 Bft) 100,00 %
19.08.2021 06:58 16,5 C 16,1 C 15,6 C 96 % 1013,7 hPa 0,0 l/m 0 min 0 min 5 W/m 6,4 km/h (2 Bft) 100,00 %
19.08.2021 07:00 16,5 C 16,1 C 15,6 C 96 % 1013,7 hPa 0,0 l/m 0 min 0 min 5 W/m 6,4 km/h (2 Bft) 100,00 %
19.08.2021 07:02 16,5 C 16,1 C 15,6 C 96 % 1013,7 hPa 0,0 l/m 0 min 0 min 5 W/m 3,2 km/h (1 Bft) 95,74 %
19.08.2021 07:04 16,5 C 16,1 C 15,6 C 96 % 1013,7 hPa 0,0 l/m 0 min 0 min 5 W/m 16,1 km/h (3 Bft) 100,00 %
19.08.2021 07:06 16,5 C 16,1 C 15,6 C 96 % 1013,7 hPa 0,0 l/m 0 min 0 min 5 W/m 6,4 km/h (2 Bft) 97,87 %
19.08.2021 07:08 16,5 C 16,1 C 15,6 C 96 % 1013,7 hPa 0,0 l/m 0 min 0 min 7 W/m 3,2 km/h (1 Bft) 100,00 %
19.08.2021 07:10 16,5 C 16,1 C 15,6 C 96 % 1013,7 hPa 0,0 l/m 0 min 0 min 8 W/m 12,9 km/h (3 Bft) 97,83 %
19.08.2021 07:12 16,4 C 16,1 C 15,6 C 96 % 1013,7 hPa 0,0 l/m 0 min 0 min 8 W/m 6,4 km/h (2 Bft) 100,00 %
19.08.2021 07:14 16,4 C 16,1 C 15,6 C 96 % 1013,7 hPa 0,0 l/m 0 min 0 min 8 W/m 3,2 km/h (1 Bft) 97,87 %
19.08.2021 07:16 16,4 C 16,1 C 15,6 C 96 % 1013,7 hPa 0,0 l/m 0 min 0 min 9 W/m 6,4 km/h (2 Bft) 100,00 %
19.08.2021 07:18 16,4 C 16,1 C 15,6 C 96 % 1013,7 hPa 0,0 l/m 0 min 0 min 9 W/m 9,7 km/h (2 Bft) 96,00 %
19.08.2021 07:20 16,4 C 16,1 C 15,6 C 95 % 1013,7 hPa 0,0 l/m 0 min 0 min 9 W/m 6,4 km/h (2 Bft) 100,00 %
19.08.2021 07:22 16,4 C 16,1 C 15,6 C 95 % 1013,8 hPa 0,0 l/m 0 min 0 min 11 W/m 6,4 km/h (2 Bft) 94,55 %
19.08.2021 07:24 16,4 C 16,1 C 15,6 C 95 % 1013,7 hPa 0,0 l/m 0 min 0 min 12 W/m 3,2 km/h (1 Bft) 97,87 %
19.08.2021 07:26 16,4 C 16,1 C 15,6 C 95 % 1013,7 hPa 0,0 l/m 0 min 0 min 13 W/m 3,2 km/h (1 Bft) 98,00 %
19.08.2021 07:28 16,4 C 16,1 C 15,6 C 95 % 1013,7 hPa 0,0 l/m 0 min 0 min 14 W/m 6,4 km/h (2 Bft) 97,37 %
19.08.2021 07:30 16,4 C 16,1 C 15,6 C 95 % 1013,8 hPa 0,0 l/m 0 min 0 min 14 W/m 6,4 km/h (2 Bft) 97,87 %
19.08.2021 07:32 16,4 C 16,1 C 15,6 C 95 % 1013,8 hPa 0,0 l/m 0 min 0 min 15 W/m 6,4 km/h (2 Bft) 98,11 %
19.08.2021 07:34 16,4 C 16,1 C 15,6 C 95 % 1013,8 hPa 0,0 l/m 0 min 0 min 16 W/m 3,2 km/h (1 Bft) 96,00 %
19.08.2021 07:36 16,5 C 16,1 C 15,6 C 95 % 1013,9 hPa 0,0 l/m 0 min 0 min 19 W/m 6,4 km/h (2 Bft) 97,87 %
19.08.2021 07:38 16,5 C 16,1 C 15,6 C 95 % 1013,9 hPa 0,0 l/m 0 min 0 min 19 W/m 6,4 km/h (2 Bft) 97,87 %
19.08.2021 07:40 16,5 C 16,1 C 15,6 C 95 % 1013,9 hPa 0,0 l/m 0 min 0 min 19 W/m 6,4 km/h (2 Bft) 97,87 %
19.08.2021 07:42 16,5 C 16,1 C 15,6 C 95 % 1013,9 hPa 0,0 l/m 0 min 0 min 20 W/m 9,7 km/h (2 Bft) 97,92 %
19.08.2021 07:44 16,5 C 16,1 C 15,6 C 95 % 1013,8 hPa 0,0 l/m 0 min 0 min 23 W/m 3,2 km/h (1 Bft) 94,44 %
19.08.2021 07:46 16,5 C 16,1 C 15,6 C 95 % 1013,9 hPa 0,0 l/m 0 min 0 min 23 W/m 6,4 km/h (2 Bft) 93,48 %
19.08.2021 07:48 16,5 C 16,1 C 15,6 C 95 % 1013,9 hPa 0,0 l/m 0 min 0 min 23 W/m 12,9 km/h (3 Bft) 98,15 %
19.08.2021 07:50 16,5 C 16,1 C 15,6 C 95 % 1013,9 hPa 0,0 l/m 0 min 0 min 24 W/m 3,2 km/h (1 Bft) 98,00 %
19.08.2021 07:52 16,5 C 16,1 C 15,6 C 95 % 1013,9 hPa 0,0 l/m 0 min 0 min 28 W/m 3,2 km/h (1 Bft) 91,84 %
19.08.2021 07:54 16,5 C 16,1 C 15,6 C 95 % 1014,0 hPa 0,0 l/m 0 min 0 min 30 W/m 3,2 km/h (1 Bft) 93,48 %
19.08.2021 07:56 16,5 C 16,1 C 15,6 C 95 % 1014,0 hPa 0,0 l/m 0 min 0 min 34 W/m 3,2 km/h (1 Bft) 97,22 %
19.08.2021 07:58 16,5 C 16,1 C 15,6 C 95 % 1014,0 hPa 0,0 l/m 0 min 0 min 35 W/m 3,2 km/h (1 Bft) 95,92 %
19.08.2021 08:00 16,5 C 16,1 C 15,6 C 95 % 1014,0 hPa 0,0 l/m 0 min 0 min 35 W/m 6,4 km/h (2 Bft) 94,44 %
19.08.2021 08:02 16,6 C 16,1 C 15,6 C 95 % 1014,0 hPa 0,0 l/m 0 min 0 min 35 W/m 12,9 km/h (3 Bft) 92,00 %
19.08.2021 08:04 16,6 C 16,1 C 15,6 C 95 % 1014,0 hPa 0,0 l/m 0 min 0 min 35 W/m 6,4 km/h (2 Bft) 93,75 %
19.08.2021 08:06 16,6 C 16,1 C 15,6 C 95 % 1014,0 hPa 0,0 l/m 0 min 0 min 33 W/m 16,1 km/h (3 Bft) 92,45 %
19.08.2021 08:08 16,6 C 16,1 C 15,6 C 95 % 1014,0 hPa 0,0 l/m 0 min 0 min 35 W/m 12,9 km/h (3 Bft) 95,65 %
19.08.2021 08:10 16,6 C 16,1 C 15,6 C 95 % 1014,0 hPa 0,0 l/m 0 min 0 min 41 W/m 12,9 km/h (3 Bft) 96,00 %
19.08.2021 08:12 16,6 C 16,1 C 15,6 C 95 % 1014,0 hPa 0,0 l/m 0 min 0 min 44 W/m 6,4 km/h (2 Bft) 94,00 %
19.08.2021 08:14 16,6 C 16,1 C 15,6 C 95 % 1014,0 hPa 0,0 l/m 0 min 0 min 47 W/m 3,2 km/h (1 Bft) 94,29 %
19.08.2021 08:16 16,6 C 16,1 C 15,6 C 95 % 1014,0 hPa 0,0 l/m 0 min 0 min 52 W/m 6,4 km/h (2 Bft) 95,74 %
19.08.2021 08:18 16,6 C 16,1 C 15,6 C 95 % 1014,1 hPa 0,0 l/m 0 min 0 min 50 W/m 6,4 km/h (2 Bft) 96,43 %
19.08.2021 08:20 16,6 C 16,1 C 15,6 C 95 % 1014,1 hPa 0,0 l/m 0 min 0 min 46 W/m 6,4 km/h (2 Bft) 93,88 %
19.08.2021 08:22 16,6 C 16,1 C 15,6 C 95 % 1014,1 hPa 0,0 l/m 0 min 0 min 47 W/m 12,9 km/h (3 Bft) 97,14 %
19.08.2021 08:24 16,7 C 16,1 C 15,6 C 95 % 1014,1 hPa 0,0 l/m 0 min 0 min 47 W/m 6,4 km/h (2 Bft) 92,45 %
19.08.2021 08:26 16,7 C 16,1 C 16,1 C 95 % 1014,1 hPa 0,0 l/m 0 min 0 min 47 W/m 9,7 km/h (2 Bft) 98,00 %
19.08.2021 08:28 16,7 C 16,1 C 16,1 C 95 % 1014,1 hPa 0,0 l/m 0 min 0 min 52 W/m 9,7 km/h (2 Bft) 98,00 %
19.08.2021 08:30 16,8 C 16,7 C 16,1 C 95 % 1014,1 hPa 0,0 l/m 0 min 0 min 59 W/m 3,2 km/h (1 Bft) 97,14 %
19.08.2021 08:32 16,8 C 16,7 C 16,1 C 95 % 1014,1 hPa 0,0 l/m 0 min 0 min 59 W/m 9,7 km/h (2 Bft) 98,08 %
19.08.2021 08:34 16,8 C 16,7 C 16,1 C 95 % 1014,1 hPa 0,0 l/m 0 min 0 min 55 W/m 6,4 km/h (2 Bft) 98,00 %
19.08.2021 08:36 16,8 C 16,7 C 16,1 C 95 % 1014,1 hPa 0,0 l/m 0 min 0 min 55 W/m 12,9 km/h (3 Bft) 98,00 %
19.08.2021 08:38 16,8 C 16,7 C 16,1 C 94 % 1014,1 hPa 0,0 l/m 0 min 0 min 63 W/m 9,7 km/h (2 Bft) 97,87 %
19.08.2021 08:40 16,8 C 16,7 C 16,1 C 94 % 1014,2 hPa 0,0 l/m 0 min 0 min 62 W/m 6,4 km/h (2 Bft) 97,87 %
19.08.2021 08:42 16,8 C 16,7 C 16,1 C 95 % 1014,1 hPa 0,0 l/m 0 min 0 min 63 W/m 6,4 km/h (2 Bft) 97,83 %
19.08.2021 08:44 16,8 C 16,7 C 16,1 C 94 % 1014,1 hPa 0,0 l/m 0 min 0 min 65 W/m 6,4 km/h (2 Bft) 94,29 %
19.08.2021 08:46 16,8 C 16,7 C 16,1 C 94 % 1014,2 hPa 0,0 l/m 0 min 0 min 67 W/m 3,2 km/h (1 Bft) 97,87 %
19.08.2021 08:47 16,9 C 16,7 C 16,1 C 94 % 1014,1 hPa 0,0 l/m 0 min 0 min 67 W/m 3,2 km/h (1 Bft) 96,43 %
19.08.2021 08:50 16,9 C 16,7 C 16,1 C 94 % 1014,1 hPa 0,0 l/m 0 min 0 min 74 W/m 6,4 km/h (2 Bft) 92,00 %
19.08.2021 08:52 16,9 C 16,7 C 16,1 C 94 % 1014,1 hPa 0,0 l/m 0 min 0 min 77 W/m 6,4 km/h (2 Bft) 100,00 %
19.08.2021 08:54 16,9 C 16,7 C 16,1 C 94 % 1014,1 hPa 0,0 l/m 0 min 0 min 83 W/m 6,4 km/h (2 Bft) 100,00 %
19.08.2021 08:56 16,9 C 16,7 C 16,1 C 94 % 1014,2 hPa 0,0 l/m 0 min 0 min 80 W/m 3,2 km/h (1 Bft) 100,00 %
19.08.2021 08:58 16,9 C 16,7 C 16,1 C 94 % 1014,2 hPa 0,0 l/m 0 min 0 min 75 W/m 12,9 km/h (3 Bft) 100,00 %
19.08.2021 09:00 16,9 C 16,7 C 16,1 C 94 % 1014,2 hPa 0,0 l/m 0 min 0 min 82 W/m 6,4 km/h (2 Bft) 97,87 %
19.08.2021 09:02 17,0 C 16,7 C 16,1 C 94 % 1014,2 hPa 0,0 l/m 0 min 0 min 88 W/m 9,7 km/h (2 Bft) 100,00 %
19.08.2021 09:04 17,0 C 16,7 C 16,1 C 94 % 1014,2 hPa 0,0 l/m 0 min 0 min 84 W/m 9,7 km/h (2 Bft) 100,00 %
19.08.2021 09:06 17,0 C 16,7 C 16,1 C 94 % 1014,3 hPa 0,0 l/m 0 min 0 min 83 W/m 6,4 km/h (2 Bft) 97,87 %
19.08.2021 09:08 17,0 C 16,7 C 16,1 C 94 % 1014,3 hPa 0,0 l/m 0 min 0 min 82 W/m 12,9 km/h (3 Bft) 100,00 %
19.08.2021 09:10 17,0 C 16,7 C 16,1 C 94 % 1014,2 hPa 0,0 l/m 0 min 0 min 86 W/m 9,7 km/h (2 Bft) 100,00 %
19.08.2021 09:12 17,0 C 16,7 C 16,1 C 93 % 1014,3 hPa 0,0 l/m 0 min 0 min 87 W/m 6,4 km/h (2 Bft) 100,00 %
19.08.2021 09:14 17,0 C 16,7 C 16,1 C 93 % 1014,2 hPa 0,0 l/m 0 min 0 min 79 W/m 6,4 km/h (2 Bft) 100,00 %
19.08.2021 09:16 17,1 C 16,7 C 16,1 C 93 % 1014,3 hPa 0,0 l/m 0 min 0 min 77 W/m 6,4 km/h (2 Bft) 100,00 %
19.08.2021 09:18 17,1 C 16,7 C 16,1 C 93 % 1014,2 hPa 0,0 l/m 0 min 0 min 77 W/m 12,9 km/h (3 Bft) 100,00 %
19.08.2021 09:20 17,1 C 16,7 C 16,1 C 93 % 1014,3 hPa 0,0 l/m 0 min 0 min 79 W/m 12,9 km/h (3 Bft) 100,00 %
19.08.2021 09:22 17,1 C 16,7 C 16,1 C 93 % 1014,3 hPa 0,0 l/m 0 min 0 min 72 W/m 12,9 km/h (3 Bft) 97,87 %
19.08.2021 09:24 17,1 C 16,7 C 16,1 C 93 % 1014,3 hPa 0,0 l/m 0 min 0 min 70 W/m 12,9 km/h (3 Bft) 97,87 %
19.08.2021 09:26 17,1 C 16,7 C 16,1 C 93 % 1014,3 hPa 0,0 l/m 0 min 0 min 66 W/m 9,7 km/h (2 Bft) 100,00 %
19.08.2021 09:28 17,1 C 16,7 C 16,1 C 93 % 1014,3 hPa 0,0 l/m 0 min 0 min 66 W/m 12,9 km/h (3 Bft) 100,00 %
19.08.2021 09:30 17,1 C 16,7 C 16,1 C 93 % 1014,3 hPa 0,0 l/m 0 min 0 min 66 W/m 12,9 km/h (3 Bft) 100,00 %
19.08.2021 09:32 17,1 C 16,7 C 16,1 C 93 % 1014,3 hPa 0,0 l/m 0 min 0 min 57 W/m 9,7 km/h (2 Bft) 97,87 %
19.08.2021 09:34 17,1 C 16,7 C 16,1 C 93 % 1014,3 hPa 0,0 l/m 0 min 0 min 64 W/m 12,9 km/h (3 Bft) 100,00 %
19.08.2021 09:36 17,1 C 16,7 C 16,1 C 93 % 1014,3 hPa 0,0 l/m 0 min 0 min 71 W/m 9,7 km/h (2 Bft) 100,00 %
19.08.2021 09:38 17,1 C 16,7 C 16,1 C 93 % 1014,4 hPa 0,0 l/m 0 min 0 min 71 W/m 6,4 km/h (2 Bft) 97,87 %
19.08.2021 09:40 17,1 C 16,7 C 16,1 C 93 % 1014,3 hPa 0,0 l/m 0 min 0 min 82 W/m 6,4 km/h (2 Bft) 97,83 %
19.08.2021 09:42 17,1 C 16,7 C 16,1 C 93 % 1014,4 hPa 0,0 l/m 0 min 0 min 81 W/m 12,9 km/h (3 Bft) 100,00 %
19.08.2021 09:44 17,1 C 16,7 C 16,1 C 93 % 1014,4 hPa 0,0 l/m 0 min 0 min 80 W/m 6,4 km/h (2 Bft) 100,00 %
19.08.2021 09:46 17,2 C 16,7 C 16,1 C 93 % 1014,4 hPa 0,0 l/m 0 min 0 min 74 W/m 12,9 km/h (3 Bft) 100,00 %
19.08.2021 09:48 17,2 C 16,7 C 16,1 C 93 % 1014,4 hPa 0,0 l/m 0 min 0 min 69 W/m 6,4 km/h (2 Bft) 100,00 %
19.08.2021 09:50 17,1 C 16,7 C 16,1 C 92 % 1014,5 hPa 0,0 l/m 0 min 0 min 64 W/m 12,9 km/h (3 Bft) 97,87 %
19.08.2021 09:52 17,2 C 16,7 C 16,1 C 92 % 1014,4 hPa 0,0 l/m 0 min 0 min 56 W/m 12,9 km/h (3 Bft) 97,83 %
19.08.2021 09:54 17,2 C 16,7 C 16,1 C 92 % 1014,4 hPa 0,0 l/m 0 min 0 min 51 W/m 16,1 km/h (3 Bft) 97,87 %
19.08.2021 09:56 17,1 C 16,7 C 16,1 C 92 % 1014,4 hPa 0,0 l/m 0 min 0 min 49 W/m 6,4 km/h (2 Bft) 95,74 %
19.08.2021 09:58 17,1 C 16,7 C 16,1 C 92 % 1014,5 hPa 0,0 l/m 0 min 0 min 49 W/m 9,7 km/h (2 Bft) 97,87 %
19.08.2021 10:00 17,1 C 16,7 C 16,1 C 92 % 1014,5 hPa 0,0 l/m 0 min 0 min 44 W/m 12,9 km/h (3 Bft) 97,87 %
19.08.2021 10:02 17,1 C 16,7 C 16,1 C 92 % 1014,5 hPa 0,0 l/m 0 min 0 min 47 W/m 6,4 km/h (2 Bft) 95,74 %
19.08.2021 10:04 17,1 C 16,7 C 16,1 C 92 % 1014,4 hPa 0,0 l/m 0 min 0 min 56 W/m 12,9 km/h (3 Bft) 97,83 %
19.08.2021 10:06 17,1 C 16,7 C 16,1 C 92 % 1014,5 hPa 0,0 l/m 0 min 0 min 59 W/m 6,4 km/h (2 Bft) 95,74 %
19.08.2021 10:08 17,1 C 16,7 C 16,1 C 92 % 1014,5 hPa 0,0 l/m 0 min 0 min 73 W/m 6,4 km/h (2 Bft) 92,86 %
19.08.2021 10:10 17,1 C 16,7 C 16,1 C 92 % 1014,5 hPa 0,0 l/m 0 min 0 min 88 W/m 16,1 km/h (3 Bft) 96,00 %
19.08.2021 10:12 17,1 C 16,7 C 16,1 C 92 % 1014,5 hPa 0,0 l/m 0 min 0 min 84 W/m 9,7 km/h (2 Bft) 91,49 %
19.08.2021 10:14 17,2 C 16,7 C 16,1 C 92 % 1014,4 hPa 0,0 l/m 0 min 0 min 91 W/m 12,9 km/h (3 Bft) 95,74 %
19.08.2021 10:16 17,2 C 16,7 C 16,1 C 92 % 1014,5 hPa 0,0 l/m 0 min 0 min 99 W/m 12,9 km/h (3 Bft) 93,48 %
19.08.2021 10:18 17,2 C 16,7 C 16,1 C 92 % 1014,5 hPa 0,0 l/m 0 min 0 min 123 W/m 12,9 km/h (3 Bft) 95,74 %
19.08.2021 10:20 17,3 C 17,2 C 16,1 C 92 % 1014,5 hPa 0,0 l/m 0 min 0 min 126 W/m 6,4 km/h (2 Bft) 95,74 %
19.08.2021 10:22 17,3 C 17,2 C 16,1 C 92 % 1014,5 hPa 0,0 l/m 0 min 0 min 121 W/m 12,9 km/h (3 Bft) 93,62 %
19.08.2021 10:24 17,3 C 17,2 C 16,7 C 92 % 1014,5 hPa 0,0 l/m 0 min 0 min 105 W/m 6,4 km/h (2 Bft) 97,87 %
19.08.2021 10:26 17,3 C 17,2 C 16,7 C 92 % 1014,6 hPa 0,0 l/m 0 min 0 min 114 W/m 12,9 km/h (3 Bft) 97,83 %
19.08.2021 10:28 17,4 C 17,2 C 16,7 C 92 % 1014,5 hPa 0,0 l/m 0 min 0 min 114 W/m 16,1 km/h (3 Bft) 95,74 %
19.08.2021 10:30 17,4 C 17,2 C 16,7 C 92 % 1014,5 hPa 0,0 l/m 0 min 0 min 112 W/m 12,9 km/h (3 Bft) 97,87 %
19.08.2021 10:32 17,4 C 17,2 C 16,7 C 92 % 1014,5 hPa 0,0 l/m 0 min 0 min 106 W/m 22,5 km/h (4 Bft) 95,92 %
19.08.2021 10:34 17,4 C 17,2 C 16,7 C 92 % 1014,5 hPa 0,0 l/m 0 min 0 min 92 W/m 12,9 km/h (3 Bft) 97,87 %
19.08.2021 10:36 17,4 C 17,2 C 16,7 C 92 % 1014,5 hPa 0,0 l/m 0 min 0 min 83 W/m 6,4 km/h (2 Bft) 97,87 %
19.08.2021 10:38 17,4 C 17,2 C 16,7 C 92 % 1014,5 hPa 0,0 l/m 0 min 0 min 84 W/m 12,9 km/h (3 Bft) 97,83 %
19.08.2021 10:40 17,4 C 17,2 C 16,1 C 91 % 1014,5 hPa 0,0 l/m 0 min 0 min 107 W/m 12,9 km/h (3 Bft) 97,87 %
19.08.2021 10:42 17,4 C 17,2 C 16,7 C 91 % 1014,6 hPa 0,0 l/m 0 min 0 min 131 W/m 12,9 km/h (3 Bft) 97,87 %
19.08.2021 10:44 17,4 C 17,2 C 16,7 C 91 % 1014,6 hPa 0,0 l/m 0 min 0 min 129 W/m 9,7 km/h (2 Bft) 97,87 %
19.08.2021 10:46 17,4 C 17,2 C 16,7 C 91 % 1014,6 hPa 0,0 l/m 0 min 0 min 123 W/m 12,9 km/h (3 Bft) 95,74 %
19.08.2021 10:48 17,4 C 17,2 C 16,7 C 91 % 1014,6 hPa 0,0 l/m 0 min 0 min 122 W/m 16,1 km/h (3 Bft) 97,87 %
19.08.2021 10:50 17,4 C 17,2 C 16,7 C 91 % 1014,5 hPa 0,0 l/m 0 min 0 min 104 W/m 6,4 km/h (2 Bft) 95,65 %
19.08.2021 10:52 17,4 C 17,2 C 16,7 C 91 % 1014,6 hPa 0,0 l/m 0 min 0 min 99 W/m 6,4 km/h (2 Bft) 97,87 %
19.08.2021 10:54 17,4 C 17,2 C 16,7 C 91 % 1014,6 hPa 0,0 l/m 0 min 0 min 99 W/m 25,7 km/h (4 Bft) 100,00 %
19.08.2021 10:56 17,4 C 17,2 C 16,7 C 91 % 1014,7 hPa 0,0 l/m 0 min 0 min 100 W/m 9,7 km/h (2 Bft) 100,00 %
19.08.2021 10:58 17,4 C 17,2 C 16,7 C 90 % 1014,7 hPa 0,0 l/m 0 min 0 min 98 W/m 16,1 km/h (3 Bft) 97,87 %
19.08.2021 11:00 17,5 C 17,2 C 16,7 C 90 % 1014,7 hPa 0,0 l/m 0 min 0 min 109 W/m 9,7 km/h (2 Bft) 95,65 %
19.08.2021 11:02 17,5 C 17,2 C 16,7 C 90 % 1014,7 hPa 0,0 l/m 0 min 0 min 117 W/m 6,4 km/h (2 Bft) 97,87 %
19.08.2021 11:04 17,5 C 17,2 C 16,7 C 90 % 1014,7 hPa 0,0 l/m 0 min 0 min 122 W/m 12,9 km/h (3 Bft) 97,87 %
19.08.2021 11:06 17,5 C 17,2 C 16,7 C 90 % 1014,7 hPa 0,0 l/m 0 min 0 min 118 W/m 9,7 km/h (2 Bft) 97,87 %
19.08.2021 11:08 17,6 C 17,2 C 16,7 C 90 % 1014,8 hPa 0,0 l/m 0 min 0 min 123 W/m 12,9 km/h (3 Bft) 97,87 %
19.08.2021 11:10 17,5 C 17,2 C 16,7 C 90 % 1014,8 hPa 0,0 l/m 0 min 0 min 144 W/m 6,4 km/h (2 Bft) 97,87 %
19.08.2021 11:12 17,6 C 17,8 C 16,7 C 90 % 1014,8 hPa 0,0 l/m 0 min 0 min 157 W/m 6,4 km/h (2 Bft) 97,83 %
19.08.2021 11:14 17,6 C 17,8 C 16,7 C 90 % 1014,8 hPa 0,0 l/m 0 min 0 min 145 W/m 12,9 km/h (3 Bft) 97,87 %
19.08.2021 11:16 17,6 C 17,8 C 16,7 C 90 % 1014,8 hPa 0,0 l/m 0 min 0 min 144 W/m 9,7 km/h (2 Bft) 97,87 %
19.08.2021 11:18 17,7 C 17,8 C 16,7 C 90 % 1014,8 hPa 0,0 l/m 0 min 0 min 171 W/m 9,7 km/h (2 Bft) 97,87 %
19.08.2021 11:20 17,8 C 17,8 C 16,7 C 89 % 1014,8 hPa 0,0 l/m 0 min 0 min 181 W/m 12,9 km/h (3 Bft) 97,87 %
19.08.2021 11:22 17,8 C 17,8 C 17,3 C 89 % 1014,8 hPa 0,0 l/m 0 min 0 min 164 W/m 12,9 km/h (3 Bft) 97,87 %
19.08.2021 11:24 17,9 C 17,8 C 17,3 C 89 % 1014,7 hPa 0,0 l/m 0 min 0 min 161 W/m 19,3 km/h (3 Bft) 97,83 %
19.08.2021 11:26 17,9 C 17,8 C 17,3 C 89 % 1014,8 hPa 0,0 l/m 0 min 0 min 130 W/m 12,9 km/h (3 Bft) 95,74 %
19.08.2021 11:28 17,9 C 17,8 C 17,3 C 89 % 1014,8 hPa 0,0 l/m 0 min 0 min 111 W/m 16,1 km/h (3 Bft) 97,87 %
19.08.2021 11:30 17,9 C 17,8 C 17,3 C 88 % 1014,8 hPa 0,0 l/m 0 min 0 min 150 W/m 12,9 km/h (3 Bft) 97,87 %
19.08.2021 11:32 18,0 C 17,8 C 17,3 C 88 % 1014,9 hPa 0,0 l/m 0 min 0 min 173 W/m 16,1 km/h (3 Bft) 97,87 %
19.08.2021 11:34 18,0 C 17,8 C 17,3 C 88 % 1014,8 hPa 0,0 l/m 0 min 0 min 177 W/m 6,4 km/h (2 Bft) 97,87 %
19.08.2021 11:36 18,0 C 17,8 C 17,3 C 88 % 1014,8 hPa 0,0 l/m 0 min 0 min 196 W/m 16,1 km/h (3 Bft) 97,83 %
19.08.2021 11:38 18,0 C 18,3 C 17,3 C 87 % 1014,9 hPa 0,0 l/m 0 min 0 min 237 W/m 6,4 km/h (2 Bft) 95,74 %
19.08.2021 11:40 18,1 C 18,3 C 17,3 C 88 % 1014,8 hPa 0,0 l/m 0 min 0 min 239 W/m 12,9 km/h (3 Bft) 95,74 %
19.08.2021 11:42 18,1 C 18,3 C 17,3 C 87 % 1014,8 hPa 0,0 l/m 0 min 0 min 200 W/m 12,9 km/h (3 Bft) 97,87 %
19.08.2021 11:44 18,1 C 18,3 C 17,3 C 87 % 1014,8 hPa 0,0 l/m 0 min 0 min 209 W/m 12,9 km/h (3 Bft) 97,87 %
19.08.2021 11:46 18,1 C 18,3 C 17,3 C 87 % 1014,8 hPa 0,0 l/m 0 min 0 min 219 W/m 16,1 km/h (3 Bft) 97,87 %
19.08.2021 11:48 18,2 C 18,3 C 17,3 C 87 % 1014,9 hPa 0,0 l/m 0 min 0 min 230 W/m 12,9 km/h (3 Bft) 97,83 %
19.08.2021 11:50 18,3 C 18,9 C 17,8 C 87 % 1014,8 hPa 0,0 l/m 0 min 0 min 257 W/m 6,4 km/h (2 Bft) 95,74 %
19.08.2021 11:52 18,4 C 18,9 C 17,8 C 86 % 1014,8 hPa 0,0 l/m 0 min 0 min 284 W/m 6,4 km/h (2 Bft) 97,87 %
19.08.2021 11:54 18,4 C 18,9 C 17,8 C 86 % 1014,7 hPa 0,0 l/m 0 min 0 min 320 W/m 12,9 km/h (3 Bft) 93,62 %
19.08.2021 11:56 18,5 C 18,9 C 17,8 C 86 % 1014,7 hPa 0,0 l/m 2 min 0 min 364 W/m 9,7 km/h (2 Bft) 93,62 %
19.08.2021 11:58 18,5 C 19,4 C 18,4 C 86 % 1014,7 hPa 0,0 l/m 2 min 0 min 368 W/m 16,1 km/h (3 Bft) 95,74 %
19.08.2021 12:00 18,6 C 18,9 C 18,4 C 85 % 1014,6 hPa 0,0 l/m 2 min 0 min 360 W/m 16,1 km/h (3 Bft) 91,30 %
19.08.2021 12:02 18,7 C 18,9 C 18,4 C 85 % 1014,7 hPa 0,0 l/m 0 min 0 min 335 W/m 16,1 km/h (3 Bft) 97,87 %
19.08.2021 12:04 18,8 C 18,9 C 18,4 C 84 % 1014,7 hPa 0,0 l/m 0 min 0 min 305 W/m 12,9 km/h (3 Bft) 97,87 %
19.08.2021 12:08 19,0 C 19,4 C 18,4 C 84 % 1014,8 hPa 0,0 l/m 0 min 0 min 281 W/m 16,1 km/h (3 Bft) 97,56 %
19.08.2021 12:10 19,0 C 19,4 C 18,4 C 83 % 1014,8 hPa 0,0 l/m 0 min 0 min 290 W/m 12,9 km/h (3 Bft) 97,87 %
19.08.2021 12:12 19,0 C 19,4 C 18,4 C 82 % 1014,8 hPa 0,0 l/m 0 min 0 min 326 W/m 16,1 km/h (3 Bft) 97,87 %
19.08.2021 12:14 19,0 C 19,4 C 18,4 C 82 % 1014,8 hPa 0,0 l/m 0 min 0 min 352 W/m 12,9 km/h (3 Bft) 98,28 %
19.08.2021 12:16 19,1 C 19,4 C 18,4 C 82 % 1014,8 hPa 0,0 l/m 0 min 0 min 346 W/m 16,1 km/h (3 Bft) 97,14 %
19.08.2021 12:18 19,1 C 19,4 C 18,4 C 82 % 1014,8 hPa 0,0 l/m 0 min 0 min 277 W/m 16,1 km/h (3 Bft) 97,87 %
19.08.2021 12:20 19,1 C 18,9 C 18,4 C 82 % 1014,8 hPa 0,0 l/m 0 min 0 min 215 W/m 12,9 km/h (3 Bft) 97,87 %
19.08.2021 12:22 19,1 C 18,9 C 18,4 C 82 % 1014,7 hPa 0,0 l/m 0 min 0 min 200 W/m 6,4 km/h (2 Bft) 97,87 %
19.08.2021 12:24 19,1 C 18,9 C 17,8 C 82 % 1014,8 hPa 0,0 l/m 0 min 0 min 177 W/m 16,1 km/h (3 Bft) 97,87 %
19.08.2021 12:26 19,0 C 18,9 C 17,8 C 82 % 1014,7 hPa 0,0 l/m 0 min 0 min 154 W/m 12,9 km/h (3 Bft) 93,48 %
19.08.2021 12:28 19,0 C 18,9 C 17,8 C 82 % 1014,8 hPa 0,0 l/m 0 min 0 min 154 W/m 6,4 km/h (2 Bft) 97,87 %
19.08.2021 12:30 19,0 C 18,3 C 17,8 C 82 % 1014,7 hPa 0,0 l/m 0 min 0 min 163 W/m 12,9 km/h (3 Bft) 97,87 %
19.08.2021 12:32 18,9 C 18,3 C 17,3 C 82 % 1014,8 hPa 0,0 l/m 0 min 0 min 173 W/m 12,9 km/h (3 Bft) 100,00 %
19.08.2021 12:34 18,9 C 18,3 C 17,3 C 82 % 1014,8 hPa 0,0 l/m 0 min 0 min 174 W/m 6,4 km/h (2 Bft) 100,00 %
19.08.2021 12:36 18,9 C 18,3 C 17,3 C 83 % 1014,8 hPa 0,0 l/m 0 min 0 min 168 W/m 12,9 km/h (3 Bft) 100,00 %
19.08.2021 12:38 18,9 C 18,9 C 17,3 C 83 % 1014,8 hPa 0,0 l/m 0 min 0 min 155 W/m 16,1 km/h (3 Bft) 100,00 %
19.08.2021 12:40 18,9 C 18,3 C 17,3 C 83 % 1014,8 hPa 0,0 l/m 0 min 0 min 149 W/m 9,7 km/h (2 Bft) 97,14 %
19.08.2021 12:42 18,9 C 18,3 C 17,3 C 83 % 1014,8 hPa 0,0 l/m 0 min 0 min 150 W/m 12,9 km/h (3 Bft) 97,87 %
19.08.2021 12:44 18,8 C 18,3 C 17,3 C 83 % 1014,8 hPa 0,0 l/m 0 min 0 min 153 W/m 12,9 km/h (3 Bft) 97,87 %
19.08.2021 12:46 18,8 C 18,3 C 17,3 C 83 % 1014,8 hPa 0,0 l/m 0 min 0 min 173 W/m 12,9 km/h (3 Bft) 97,87 %
19.08.2021 12:48 18,7 C 18,3 C 17,3 C 83 % 1014,8 hPa 0,0 l/m 0 min 0 min 204 W/m 9,7 km/h (2 Bft) 97,87 %
19.08.2021 12:50 18,7 C 18,3 C 17,3 C 83 % 1014,8 hPa 0,0 l/m 0 min 0 min 196 W/m 9,7 km/h (2 Bft) 95,65 %
19.08.2021 12:52 18,7 C 18,3 C 17,3 C 83 % 1014,8 hPa 0,0 l/m 0 min 0 min 181 W/m 6,4 km/h (2 Bft) 93,22 %
19.08.2021 12:54 18,7 C 18,9 C 17,3 C 83 % 1014,7 hPa 0,0 l/m 0 min 0 min 175 W/m 6,4 km/h (2 Bft) 97,14 %
19.08.2021 12:56 18,7 C 18,9 C 17,3 C 83 % 1014,8 hPa 0,0 l/m 0 min 0 min 169 W/m 16,1 km/h (3 Bft) 97,87 %
19.08.2021 12:58 18,6 C 18,3 C 17,3 C 83 % 1014,8 hPa 0,0 l/m 0 min 0 min 174 W/m 12,9 km/h (3 Bft) 97,87 %
19.08.2021 13:00 18,6 C 18,3 C 17,3 C 83 % 1014,7 hPa 0,0 l/m 0 min 0 min 181 W/m 19,3 km/h (3 Bft) 95,74 %
19.08.2021 13:02 18,6 C 18,3 C 17,3 C 83 % 1014,7 hPa 0,0 l/m 0 min 0 min 192 W/m 12,9 km/h (3 Bft) 95,65 %
19.08.2021 13:04 18,6 C 18,3 C 17,3 C 83 % 1014,8 hPa 0,0 l/m 0 min 0 min 192 W/m 16,1 km/h (3 Bft) 97,87 %
19.08.2021 13:06 18,6 C 18,3 C 17,3 C 83 % 1014,8 hPa 0,0 l/m 0 min 0 min 180 W/m 25,7 km/h (4 Bft) 97,87 %
19.08.2021 13:08 18,6 C 18,3 C 17,3 C 83 % 1014,8 hPa 0,0 l/m 0 min 0 min 175 W/m 6,4 km/h (2 Bft) 96,55 %
19.08.2021 13:10 18,6 C 18,3 C 17,3 C 83 % 1014,8 hPa 0,0 l/m 0 min 0 min 169 W/m 6,4 km/h (2 Bft) 97,87 %
19.08.2021 13:12 18,6 C 18,3 C 17,3 C 83 % 1014,8 hPa 0,0 l/m 0 min 0 min 163 W/m 16,1 km/h (3 Bft) 97,87 %
19.08.2021 13:14 18,6 C 18,3 C 17,3 C 83 % 1014,8 hPa 0,0 l/m 0 min 0 min 168 W/m 6,4 km/h (2 Bft) 97,87 %
19.08.2021 13:16 18,6 C 18,3 C 17,3 C 83 % 1014,9 hPa 0,0 l/m 0 min 0 min 168 W/m 16,1 km/h (3 Bft) 97,87 %
19.08.2021 13:18 18,6 C 18,3 C 17,3 C 83 % 1014,8 hPa 0,0 l/m 0 min 0 min 177 W/m 12,9 km/h (3 Bft) 94,29 %
19.08.2021 13:20 18,6 C 18,3 C 17,3 C 83 % 1014,8 hPa 0,0 l/m 0 min 0 min 200 W/m 12,9 km/h (3 Bft) 97,87 %
19.08.2021 13:22 18,6 C 18,9 C 17,3 C 83 % 1014,8 hPa 0,0 l/m 0 min 0 min 232 W/m 6,4 km/h (2 Bft) 95,74 %
19.08.2021 13:24 18,6 C 18,9 C 17,3 C 83 % 1014,8 hPa 0,0 l/m 0 min 0 min 234 W/m 16,1 km/h (3 Bft) 97,83 %
19.08.2021 13:26 18,6 C 18,9 C 17,3 C 83 % 1014,8 hPa 0,0 l/m 0 min 0 min 235 W/m 9,7 km/h (2 Bft) 97,87 %
19.08.2021 13:28 18,6 C 18,9 C 17,3 C 83 % 1014,8 hPa 0,0 l/m 0 min 0 min 278 W/m 12,9 km/h (3 Bft) 100,00 %
19.08.2021 13:30 18,6 C 18,9 C 17,8 C 83 % 1014,9 hPa 0,0 l/m 0 min 0 min 344 W/m 12,9 km/h (3 Bft) 100,00 %
19.08.2021 13:32 18,7 C 18,9 C 17,8 C 83 % 1014,8 hPa 0,0 l/m 0 min 0 min 370 W/m 6,4 km/h (2 Bft) 100,00 %
19.08.2021 13:34 18,8 C 19,4 C 17,8 C 84 % 1014,9 hPa 0,0 l/m 0 min 0 min 362 W/m 16,1 km/h (3 Bft) 97,87 %
19.08.2021 13:36 18,9 C 19,4 C 17,8 C 83 % 1014,9 hPa 0,0 l/m 0 min 0 min 342 W/m 19,3 km/h (3 Bft) 100,00 %
19.08.2021 13:38 18,9 C 18,9 C 17,8 C 83 % 1014,9 hPa 0,0 l/m 0 min 0 min 327 W/m 16,1 km/h (3 Bft) 100,00 %
19.08.2021 13:40 18,9 C 19,4 C 17,8 C 83 % 1014,8 hPa 0,0 l/m 0 min 0 min 254 W/m 6,4 km/h (2 Bft) 100,00 %
19.08.2021 13:42 19,0 C 19,4 C 17,8 C 83 % 1014,8 hPa 0,0 l/m 0 min 0 min 252 W/m 9,7 km/h (2 Bft) 97,87 %
19.08.2021 13:44 19,0 C 19,4 C 17,8 C 83 % 1014,8 hPa 0,0 l/m 0 min 0 min 263 W/m 12,9 km/h (3 Bft) 95,74 %
19.08.2021 13:46 19,0 C 18,9 C 17,8 C 83 % 1014,8 hPa 0,0 l/m 0 min 0 min 187 W/m 6,4 km/h (2 Bft) 97,87 %
19.08.2021 13:48 19,0 C 18,9 C 17,8 C 83 % 1014,9 hPa 0,0 l/m 0 min 0 min 141 W/m 6,4 km/h (2 Bft) 100,00 %
19.08.2021 13:50 19,0 C 18,9 C 17,3 C 83 % 1014,9 hPa 0,0 l/m 0 min 0 min 118 W/m 22,5 km/h (4 Bft) 100,00 %
19.08.2021 13:52 18,9 C 18,3 C 17,3 C 83 % 1015,0 hPa 0,0 l/m 0 min 0 min 136 W/m 12,9 km/h (3 Bft) 98,31 %
19.08.2021 13:54 18,9 C 18,3 C 17,3 C 83 % 1014,9 hPa 0,0 l/m 0 min 0 min 149 W/m 9,7 km/h (2 Bft) 100,00 %
19.08.2021 13:56 18,8 C 18,3 C 17,3 C 83 % 1014,9 hPa 0,0 l/m 0 min 0 min 169 W/m 6,4 km/h (2 Bft) 100,00 %
19.08.2021 13:58 18,9 C 18,3 C 17,3 C 83 % 1014,9 hPa 0,0 l/m 0 min 0 min 157 W/m 12,9 km/h (3 Bft) 100,00 %
19.08.2021 14:00 18,8 C 18,3 C 17,3 C 83 % 1014,9 hPa 0,0 l/m 0 min 0 min 121 W/m 16,1 km/h (3 Bft) 100,00 %
19.08.2021 14:02 18,8 C 18,3 C 17,3 C 83 % 1014,9 hPa 0,0 l/m 0 min 0 min 116 W/m 6,4 km/h (2 Bft) 97,87 %
19.08.2021 14:04 18,7 C 18,3 C 17,3 C 83 % 1014,8 hPa 0,0 l/m 0 min 0 min 126 W/m 12,9 km/h (3 Bft) 94,92 %
19.08.2021 14:06 18,7 C 18,3 C 17,3 C 83 % 1014,8 hPa 0,0 l/m 0 min 0 min 142 W/m 6,4 km/h (2 Bft) 97,14 %
19.08.2021 14:08 18,7 C 18,3 C 17,3 C 83 % 1014,8 hPa 0,0 l/m 0 min 0 min 148 W/m 16,1 km/h (3 Bft) 96,55 %
19.08.2021 14:10 18,6 C 18,3 C 17,3 C 83 % 1014,9 hPa 0,0 l/m 0 min 0 min 133 W/m 12,9 km/h (3 Bft) 97,14 %
19.08.2021 14:12 18,6 C 18,3 C 17,3 C 83 % 1014,9 hPa 0,0 l/m 0 min 0 min 117 W/m 12,9 km/h (3 Bft) 98,31 %
19.08.2021 14:14 18,6 C 18,3 C 17,3 C 83 % 1014,9 hPa 0,0 l/m 0 min 0 min 112 W/m 6,4 km/h (2 Bft) 94,29 %
19.08.2021 14:16 18,6 C 18,3 C 17,3 C 84 % 1014,9 hPa 0,0 l/m 0 min 0 min 120 W/m 6,4 km/h (2 Bft) 97,87 %
19.08.2021 14:18 18,6 C 18,3 C 17,3 C 84 % 1014,9 hPa 0,0 l/m 0 min 0 min 154 W/m 12,9 km/h (3 Bft) 97,87 %
19.08.2021 14:20 18,6 C 18,9 C 17,3 C 84 % 1014,9 hPa 0,0 l/m 0 min 0 min 190 W/m 9,7 km/h (2 Bft) 97,87 %
19.08.2021 14:22 18,6 C 18,9 C 17,3 C 84 % 1014,8 hPa 0,0 l/m 0 min 0 min 206 W/m 6,4 km/h (2 Bft) 96,55 %
19.08.2021 14:24 18,6 C 18,9 C 17,3 C 84 % 1014,9 hPa 0,0 l/m 0 min 0 min 221 W/m 6,4 km/h (2 Bft) 95,74 %
19.08.2021 14:26 18,7 C 18,9 C 17,3 C 84 % 1014,9 hPa 0,0 l/m 0 min 0 min 257 W/m 12,9 km/h (3 Bft) 97,14 %
19.08.2021 14:28 18,8 C 18,9 C 17,3 C 84 % 1014,9 hPa 0,0 l/m 0 min 0 min 308 W/m 6,4 km/h (2 Bft) 93,62 %
19.08.2021 14:30 18,8 C 19,4 C 17,8 C 84 % 1014,8 hPa 0,0 l/m 2 min 0 min 374 W/m 9,7 km/h (2 Bft) 94,83 %
19.08.2021 14:32 18,9 C 19,4 C 17,8 C 84 % 1014,9 hPa 0,0 l/m 2 min 0 min 427 W/m 6,4 km/h (2 Bft) 91,67 %
19.08.2021 14:34 19,0 C 20,0 C 18,4 C 84 % 1014,9 hPa 0,0 l/m 2 min 0 min 499 W/m 9,7 km/h (2 Bft) 96,15 %
19.08.2021 14:36 19,1 C 20,0 C 18,4 C 83 % 1014,9 hPa 0,0 l/m 2 min 0 min 540 W/m 12,9 km/h (3 Bft) 93,62 %
19.08.2021 14:38 19,2 C 20,6 C 18,9 C 83 % 1014,9 hPa 0,0 l/m 2 min 0 min 429 W/m 6,4 km/h (2 Bft) 97,87 %
19.08.2021 14:40 19,4 C 20,0 C 18,9 C 83 % 1014,9 hPa 0,0 l/m 0 min 0 min 328 W/m 9,7 km/h (2 Bft) 97,92 %
19.08.2021 14:42 19,5 C 20,0 C 18,4 C 82 % 1014,9 hPa 0,0 l/m 0 min 0 min 328 W/m 16,1 km/h (3 Bft) 97,87 %
19.08.2021 14:44 19,5 C 20,0 C 18,4 C 80 % 1014,9 hPa 0,0 l/m 0 min 0 min 346 W/m 12,9 km/h (3 Bft) 97,83 %
19.08.2021 14:46 19,5 C 20,0 C 18,4 C 79 % 1014,9 hPa 0,0 l/m 2 min 0 min 378 W/m 19,3 km/h (3 Bft) 97,87 %
19.08.2021 14:48 19,5 C 20,0 C 18,4 C 79 % 1014,9 hPa 0,0 l/m 2 min 0 min 408 W/m 9,7 km/h (2 Bft) 97,87 %
19.08.2021 14:50 19,6 C 20,6 C 18,9 C 79 % 1015,0 hPa 0,0 l/m 2 min 0 min 403 W/m 6,4 km/h (2 Bft) 97,87 %
19.08.2021 14:52 19,8 C 20,6 C 18,9 C 79 % 1015,0 hPa 0,0 l/m 2 min 0 min 376 W/m 22,5 km/h (4 Bft) 97,87 %
19.08.2021 14:54 19,9 C 20,6 C 18,9 C 78 % 1015,0 hPa 0,0 l/m 2 min 0 min 364 W/m 19,3 km/h (3 Bft) 97,87 %
19.08.2021 14:56 20,0 C 20,6 C 18,9 C 78 % 1015,0 hPa 0,0 l/m 0 min 0 min 359 W/m 19,3 km/h (3 Bft) 97,83 %
19.08.2021 14:58 20,0 C 20,6 C 18,9 C 78 % 1014,9 hPa 0,0 l/m 0 min 0 min 349 W/m 12,9 km/h (3 Bft) 95,74 %
19.08.2021 15:00 20,1 C 20,6 C 18,9 C 78 % 1015,0 hPa 0,0 l/m 0 min 0 min 347 W/m 12,9 km/h (3 Bft) 97,87 %
19.08.2021 15:02 20,3 C 21,1 C 18,9 C 78 % 1014,9 hPa 0,0 l/m 0 min 0 min 353 W/m 12,9 km/h (3 Bft) 93,62 %
19.08.2021 15:04 20,4 C 21,1 C 19,5 C 78 % 1014,9 hPa 0,0 l/m 2 min 0 min 364 W/m 19,3 km/h (3 Bft) 97,87 %
19.08.2021 15:06 20,4 C 21,1 C 19,5 C 78 % 1014,9 hPa 0,0 l/m 0 min 0 min 341 W/m 19,3 km/h (3 Bft) 97,87 %
19.08.2021 15:08 20,4 C 21,1 C 19,5 C 78 % 1014,9 hPa 0,0 l/m 0 min 0 min 314 W/m 12,9 km/h (3 Bft) 97,83 %
19.08.2021 15:10 20,4 C 20,6 C 18,9 C 77 % 1015,0 hPa 0,0 l/m 0 min 0 min 296 W/m 12,9 km/h (3 Bft) 97,87 %
19.08.2021 15:12 20,4 C 20,6 C 18,9 C 77 % 1014,9 hPa 0,0 l/m 0 min 0 min 285 W/m 16,1 km/h (3 Bft) 95,74 %
19.08.2021 15:14 20,5 C 20,6 C 18,9 C 78 % 1015,0 hPa 0,0 l/m 0 min 0 min 278 W/m 6,4 km/h (2 Bft) 95,74 %
19.08.2021 15:16 20,5 C 20,6 C 18,9 C 77 % 1014,9 hPa 0,0 l/m 0 min 0 min 274 W/m 9,7 km/h (2 Bft) 95,74 %
19.08.2021 15:18 20,5 C 20,6 C 18,9 C 77 % 1015,0 hPa 0,0 l/m 0 min 0 min 258 W/m 12,9 km/h (3 Bft) 95,74 %
19.08.2021 15:20 20,5 C 20,0 C 18,9 C 76 % 1015,0 hPa 0,0 l/m 0 min 0 min 226 W/m 16,1 km/h (3 Bft) 97,83 %
19.08.2021 15:22 20,5 C 20,0 C 18,9 C 76 % 1014,9 hPa 0,0 l/m 0 min 0 min 229 W/m 16,1 km/h (3 Bft) 95,74 %
19.08.2021 15:24 20,5 C 20,6 C 18,9 C 76 % 1015,0 hPa 0,0 l/m 0 min 0 min 259 W/m 16,1 km/h (3 Bft) 93,62 %
19.08.2021 15:26 20,4 C 20,6 C 18,9 C 76 % 1014,9 hPa 0,0 l/m 0 min 0 min 290 W/m 12,9 km/h (3 Bft) 95,74 %
19.08.2021 15:28 20,4 C 20,6 C 18,9 C 76 % 1014,9 hPa 0,0 l/m 0 min 0 min 288 W/m 6,4 km/h (2 Bft) 95,74 %
19.08.2021 15:30 20,5 C 20,6 C 18,9 C 76 % 1014,9 hPa 0,0 l/m 0 min 0 min 285 W/m 16,1 km/h (3 Bft) 97,83 %
19.08.2021 15:32 20,5 C 20,6 C 18,9 C 76 % 1014,9 hPa 0,0 l/m 0 min 0 min 275 W/m 12,9 km/h (3 Bft) 97,87 %
19.08.2021 15:34 20,6 C 20,6 C 18,9 C 76 % 1014,9 hPa 0,0 l/m 0 min 0 min 259 W/m 12,9 km/h (3 Bft) 97,87 %
19.08.2021 15:36 20,6 C 20,6 C 18,9 C 76 % 1014,8 hPa 0,0 l/m 0 min 0 min 277 W/m 12,9 km/h (3 Bft) 97,87 %
19.08.2021 15:38 20,6 C 21,1 C 18,9 C 76 % 1014,8 hPa 0,0 l/m 0 min 0 min 309 W/m 6,4 km/h (2 Bft) 97,87 %
19.08.2021 15:40 20,7 C 21,1 C 18,9 C 76 % 1014,8 hPa 0,0 l/m 2 min 0 min 341 W/m 6,4 km/h (2 Bft) 97,87 %
19.08.2021 15:42 20,7 C 21,1 C 18,9 C 76 % 1014,8 hPa 0,0 l/m 2 min 0 min 379 W/m 12,9 km/h (3 Bft) 95,65 %
19.08.2021 15:44 20,7 C 21,1 C 19,5 C 75 % 1014,8 hPa 0,0 l/m 2 min 0 min 377 W/m 16,1 km/h (3 Bft) 97,87 %
19.08.2021 15:46 20,8 C 21,7 C 19,5 C 76 % 1014,8 hPa 0,0 l/m 2 min 0 min 358 W/m 6,4 km/h (2 Bft) 95,74 %
19.08.2021 15:48 20,8 C 21,7 C 19,5 C 76 % 1014,8 hPa 0,0 l/m 2 min 0 min 383 W/m 9,7 km/h (2 Bft) 97,87 %
19.08.2021 15:50 20,9 C 21,7 C 19,5 C 74 % 1014,7 hPa 0,0 l/m 2 min 0 min 409 W/m 16,1 km/h (3 Bft) 97,87 %
19.08.2021 15:52 20,9 C 21,7 C 19,5 C 74 % 1014,7 hPa 0,0 l/m 2 min 0 min 365 W/m 12,9 km/h (3 Bft) 95,74 %
19.08.2021 15:54 20,9 C 21,1 C 19,5 C 74 % 1014,7 hPa 0,0 l/m 0 min 0 min 253 W/m 16,1 km/h (3 Bft) 93,48 %
19.08.2021 15:56 20,9 C 21,1 C 19,5 C 74 % 1014,8 hPa 0,0 l/m 0 min 0 min 200 W/m 16,1 km/h (3 Bft) 97,87 %
19.08.2021 15:58 20,9 C 20,6 C 18,9 C 74 % 1014,7 hPa 0,0 l/m 0 min 0 min 168 W/m 6,4 km/h (2 Bft) 97,87 %
19.08.2021 16:00 20,8 C 20,6 C 18,9 C 74 % 1014,6 hPa 0,0 l/m 0 min 0 min 140 W/m 16,1 km/h (3 Bft) 100,00 %
19.08.2021 16:02 20,8 C 20,0 C 18,9 C 74 % 1014,7 hPa 0,0 l/m 0 min 0 min 121 W/m 6,4 km/h (2 Bft) 100,00 %
19.08.2021 16:04 20,6 C 20,0 C 18,4 C 74 % 1014,7 hPa 0,0 l/m 0 min 0 min 110 W/m 12,9 km/h (3 Bft) 97,83 %
19.08.2021 16:06 20,5 C 20,0 C 18,4 C 75 % 1014,7 hPa 0,0 l/m 0 min 0 min 105 W/m 16,1 km/h (3 Bft) 97,87 %
19.08.2021 16:08 20,5 C 20,0 C 18,4 C 75 % 1014,6 hPa 0,0 l/m 0 min 0 min 110 W/m 16,1 km/h (3 Bft) 100,00 %
19.08.2021 16:10 20,4 C 20,0 C 18,4 C 75 % 1014,7 hPa 0,0 l/m 0 min 0 min 125 W/m 12,9 km/h (3 Bft) 97,87 %
19.08.2021 16:12 20,3 C 20,0 C 18,4 C 75 % 1014,7 hPa 0,0 l/m 0 min 0 min 140 W/m 19,3 km/h (3 Bft) 97,87 %
19.08.2021 16:14 20,2 C 20,0 C 17,8 C 75 % 1014,7 hPa 0,0 l/m 0 min 0 min 148 W/m 22,5 km/h (4 Bft) 95,74 %
19.08.2021 16:16 20,1 C 19,4 C 17,8 C 75 % 1014,7 hPa 0,0 l/m 0 min 0 min 155 W/m 12,9 km/h (3 Bft) 93,48 %
19.08.2021 16:18 20,1 C 20,0 C 17,8 C 75 % 1014,7 hPa 0,0 l/m 0 min 0 min 159 W/m 6,4 km/h (2 Bft) 97,87 %
19.08.2021 16:20 20,1 C 19,4 C 17,8 C 74 % 1014,8 hPa 0,0 l/m 0 min 0 min 152 W/m 16,1 km/h (3 Bft) 97,87 %
19.08.2021 16:22 20,1 C 19,4 C 17,8 C 74 % 1014,7 hPa 0,0 l/m 0 min 0 min 135 W/m 16,1 km/h (3 Bft) 97,87 %
19.08.2021 16:24 20,0 C 19,4 C 17,8 C 74 % 1014,7 hPa 0,0 l/m 0 min 0 min 121 W/m 12,9 km/h (3 Bft) 97,87 %
19.08.2021 16:26 20,0 C 19,4 C 17,8 C 74 % 1014,7 hPa 0,0 l/m 0 min 0 min 112 W/m 16,1 km/h (3 Bft) 95,74 %
19.08.2021 16:28 20,0 C 19,4 C 17,8 C 74 % 1014,7 hPa 0,0 l/m 0 min 0 min 109 W/m 9,7 km/h (2 Bft) 97,87 %
19.08.2021 16:30 19,9 C 19,4 C 17,8 C 74 % 1014,7 hPa 0,0 l/m 0 min 0 min 113 W/m 12,9 km/h (3 Bft) 97,83 %
19.08.2021 16:32 19,8 C 19,4 C 17,8 C 75 % 1014,7 hPa 0,0 l/m 0 min 0 min 118 W/m 16,1 km/h (3 Bft) 97,87 %
19.08.2021 16:34 19,8 C 19,4 C 17,8 C 75 % 1014,7 hPa 0,0 l/m 0 min 0 min 121 W/m 12,9 km/h (3 Bft) 97,87 %
19.08.2021 16:36 19,8 C 19,4 C 17,8 C 75 % 1014,6 hPa 0,0 l/m 0 min 0 min 122 W/m 9,7 km/h (2 Bft) 97,87 %
19.08.2021 16:38 19,8 C 19,4 C 17,8 C 75 % 1014,6 hPa 0,0 l/m 0 min 0 min 122 W/m 6,4 km/h (2 Bft) 97,87 %
19.08.2021 16:40 19,8 C 19,4 C 17,8 C 75 % 1014,6 hPa 0,0 l/m 0 min 0 min 125 W/m 9,7 km/h (2 Bft) 97,83 %
19.08.2021 16:42 19,8 C 19,4 C 17,8 C 76 % 1014,6 hPa 0,0 l/m 0 min 0 min 132 W/m 9,7 km/h (2 Bft) 97,87 %
19.08.2021 16:44 19,8 C 19,4 C 17,8 C 76 % 1014,6 hPa 0,0 l/m 0 min 0 min 141 W/m 16,1 km/h (3 Bft) 100,00 %
19.08.2021 16:46 19,8 C 19,4 C 17,8 C 75 % 1014,6 hPa 0,0 l/m 0 min 0 min 149 W/m 6,4 km/h (2 Bft) 100,00 %
19.08.2021 16:48 19,8 C 19,4 C 17,8 C 76 % 1014,6 hPa 0,0 l/m 0 min 0 min 162 W/m 9,7 km/h (2 Bft) 97,87 %
19.08.2021 16:50 19,8 C 19,4 C 17,8 C 76 % 1014,6 hPa 0,0 l/m 0 min 0 min 178 W/m 6,4 km/h (2 Bft) 100,00 %
19.08.2021 16:52 19,8 C 19,4 C 17,8 C 76 % 1014,6 hPa 0,0 l/m 0 min 0 min 192 W/m 6,4 km/h (2 Bft) 97,87 %
19.08.2021 16:54 19,9 C 20,0 C 17,8 C 76 % 1014,6 hPa 0,0 l/m 0 min 0 min 207 W/m 6,4 km/h (2 Bft) 100,00 %
19.08.2021 16:56 19,9 C 21,1 C 17,8 C 76 % 1014,5 hPa 0,0 l/m 0 min 0 min 252 W/m 3,2 km/h (1 Bft) 97,87 %
19.08.2021 16:58 20,0 C 21,7 C 17,8 C 76 % 1014,5 hPa 0,0 l/m 2 min 0 min 519 W/m 12,9 km/h (3 Bft) 100,00 %
19.08.2021 17:00 20,1 C 23,3 C 18,4 C 76 % 1014,4 hPa 0,0 l/m 2 min 0 min 470 W/m 12,9 km/h (3 Bft) 100,00 %
19.08.2021 17:02 20,2 C 25,0 C 18,4 C 75 % 1014,4 hPa 0,0 l/m 2 min 0 min 686 W/m 16,1 km/h (3 Bft) 100,00 %
19.08.2021 17:04 20,4 C 25,0 C 18,9 C 75 % 1014,4 hPa 0,0 l/m 2 min 0 min 642 W/m 19,3 km/h (3 Bft) 100,00 %
19.08.2021 17:06 20,5 C 23,9 C 18,9 C 74 % 1014,4 hPa 0,0 l/m 2 min 0 min 275 W/m 12,9 km/h (3 Bft) 100,00 %
19.08.2021 17:08 20,5 C 22,8 C 18,9 C 74 % 1014,4 hPa 0,0 l/m 0 min 0 min 177 W/m 12,9 km/h (3 Bft) 100,00 %
19.08.2021 17:10 20,6 C 22,2 C 18,9 C 74 % 1014,5 hPa 0,0 l/m 0 min 0 min 241 W/m 9,7 km/h (2 Bft) 100,00 %
19.08.2021 17:12 20,6 C 23,3 C 18,9 C 73 % 1014,4 hPa 0,0 l/m 2 min 0 min 378 W/m 16,1 km/h (3 Bft) 100,00 %
19.08.2021 17:14 20,7 C 22,8 C 18,9 C 73 % 1014,5 hPa 0,0 l/m 2 min 0 min 415 W/m 12,9 km/h (3 Bft) 100,00 %
19.08.2021 17:16 20,8 C 22,2 C 18,9 C 72 % 1014,5 hPa 0,0 l/m 0 min 0 min 183 W/m 16,1 km/h (3 Bft) 100,00 %
19.08.2021 17:18 20,8 C 21,7 C 18,9 C 72 % 1014,5 hPa 0,0 l/m 0 min 0 min 181 W/m 12,9 km/h (3 Bft) 100,00 %
19.08.2021 17:20 20,8 C 22,2 C 18,9 C 72 % 1014,5 hPa 0,0 l/m 0 min 0 min 236 W/m 16,1 km/h (3 Bft) 100,00 %
19.08.2021 17:22 20,8 C 22,2 C 18,9 C 72 % 1014,5 hPa 0,0 l/m 0 min 0 min 241 W/m 16,1 km/h (3 Bft) 100,00 %
19.08.2021 17:24 20,8 C 22,2 C 18,9 C 71 % 1014,5 hPa 0,0 l/m 2 min 0 min 340 W/m 16,1 km/h (3 Bft) 97,87 %
19.08.2021 17:26 20,8 C 22,2 C 18,9 C 71 % 1014,5 hPa 0,0 l/m 2 min 0 min 325 W/m 9,7 km/h (2 Bft) 100,00 %
19.08.2021 17:28 20,9 C 22,8 C 18,9 C 71 % 1014,5 hPa 0,0 l/m 2 min 0 min 298 W/m 9,7 km/h (2 Bft) 100,00 %
19.08.2021 17:30 20,9 C 22,2 C 18,9 C 72 % 1014,5 hPa 0,0 l/m 2 min 0 min 257 W/m 12,9 km/h (3 Bft) 100,00 %
19.08.2021 17:32 20,9 C 22,2 C 18,9 C 72 % 1014,6 hPa 0,0 l/m 2 min 0 min 243 W/m 12,9 km/h (3 Bft) 97,87 %
19.08.2021 17:34 20,8 C 23,3 C 18,9 C 71 % 1014,6 hPa 0,0 l/m 2 min 0 min 497 W/m 16,1 km/h (3 Bft) 97,87 %
19.08.2021 17:36 20,9 C 23,9 C 18,9 C 71 % 1014,6 hPa 0,0 l/m 2 min 0 min 592 W/m 16,1 km/h (3 Bft) 100,00 %
19.08.2021 17:38 20,9 C 24,4 C 18,9 C 71 % 1014,6 hPa 0,0 l/m 2 min 0 min 517 W/m 12,9 km/h (3 Bft) 97,87 %
19.08.2021 17:40 20,9 C 24,4 C 18,9 C 71 % 1014,6 hPa 0,0 l/m 2 min 0 min 490 W/m 12,9 km/h (3 Bft) 100,00 %
19.08.2021 17:42 21,0 C 24,4 C 18,9 C 71 % 1014,6 hPa 0,0 l/m 2 min 0 min 513 W/m 12,9 km/h (3 Bft) 100,00 %
19.08.2021 17:44 21,0 C 22,8 C 18,9 C 71 % 1014,7 hPa 0,0 l/m 2 min 0 min 468 W/m 12,9 km/h (3 Bft) 100,00 %
19.08.2021 17:46 20,9 C 21,7 C 18,4 C 71 % 1014,6 hPa 0,0 l/m 0 min 0 min 156 W/m 9,7 km/h (2 Bft) 93,62 %
19.08.2021 17:48 20,8 C 21,1 C 18,4 C 71 % 1014,7 hPa 0,0 l/m 0 min 0 min 149 W/m 9,7 km/h (2 Bft) 95,74 %
19.08.2021 17:50 20,7 C 20,6 C 18,4 C 71 % 1014,6 hPa 0,0 l/m 0 min 0 min 186 W/m 9,7 km/h (2 Bft) 97,83 %
19.08.2021 17:52 20,6 C 20,6 C 18,4 C 71 % 1014,7 hPa 0,0 l/m 0 min 0 min 199 W/m 16,1 km/h (3 Bft) 97,87 %
19.08.2021 17:54 20,5 C 20,0 C 17,8 C 71 % 1014,7 hPa 0,0 l/m 0 min 0 min 179 W/m 12,9 km/h (3 Bft) 97,87 %
19.08.2021 17:56 20,5 C 20,6 C 17,8 C 71 % 1014,7 hPa 0,0 l/m 2 min 0 min 217 W/m 12,9 km/h (3 Bft) 93,62 %
19.08.2021 17:58 20,4 C 20,6 C 17,8 C 72 % 1014,7 hPa 0,0 l/m 2 min 0 min 251 W/m 16,1 km/h (3 Bft) 95,74 %
19.08.2021 18:00 20,4 C 20,6 C 17,8 C 71 % 1014,7 hPa 0,0 l/m 2 min 0 min 250 W/m 12,9 km/h (3 Bft) 93,62 %
19.08.2021 18:02 20,4 C 20,6 C 17,8 C 71 % 1014,7 hPa 0,0 l/m 2 min 0 min 250 W/m 16,1 km/h (3 Bft) 95,65 %
19.08.2021 18:04 20,4 C 20,6 C 18,4 C 71 % 1014,7 hPa 0,0 l/m 2 min 0 min 214 W/m 16,1 km/h (3 Bft) 95,74 %
19.08.2021 18:08 20,3 C 20,0 C 17,8 C 71 % 1014,6 hPa 0,0 l/m 0 min 0 min 133 W/m 16,1 km/h (3 Bft) 93,75 %
19.08.2021 18:10 20,3 C 20,0 C 17,8 C 71 % 1014,6 hPa 0,0 l/m 0 min 0 min 122 W/m 6,4 km/h (2 Bft) 95,74 %
19.08.2021 18:12 20,2 C 20,0 C 17,8 C 71 % 1014,7 hPa 0,0 l/m 0 min 0 min 159 W/m 16,1 km/h (3 Bft) 93,48 %
19.08.2021 18:14 20,2 C 20,0 C 17,8 C 71 % 1014,7 hPa 0,0 l/m 2 min 0 min 191 W/m 16,1 km/h (3 Bft) 95,74 %
19.08.2021 18:16 20,1 C 20,0 C 17,8 C 71 % 1014,6 hPa 0,0 l/m 2 min 0 min 190 W/m 12,9 km/h (3 Bft) 89,36 %
19.08.2021 18:18 20,1 C 20,0 C 17,8 C 71 % 1014,7 hPa 0,0 l/m 2 min 0 min 184 W/m 12,9 km/h (3 Bft) 93,62 %
19.08.2021 18:20 20,0 C 20,0 C 17,8 C 70 % 1014,7 hPa 0,0 l/m 0 min 0 min 181 W/m 16,1 km/h (3 Bft) 93,62 %
19.08.2021 18:22 20,0 C 20,0 C 17,8 C 71 % 1014,7 hPa 0,0 l/m 2 min 0 min 184 W/m 16,1 km/h (3 Bft) 95,74 %
19.08.2021 18:24 20,1 C 20,0 C 17,8 C 71 % 1014,7 hPa 0,0 l/m 0 min 0 min 174 W/m 12,9 km/h (3 Bft) 91,30 %
19.08.2021 18:26 20,1 C 20,0 C 17,8 C 71 % 1014,7 hPa 0,0 l/m 0 min 0 min 157 W/m 16,1 km/h (3 Bft) 93,62 %
19.08.2021 18:28 20,1 C 20,0 C 17,8 C 70 % 1014,8 hPa 0,0 l/m 2 min 0 min 184 W/m 12,9 km/h (3 Bft) 93,62 %
19.08.2021 18:30 20,1 C 20,0 C 17,8 C 69 % 1014,8 hPa 0,0 l/m 0 min 0 min 138 W/m 19,3 km/h (3 Bft) 91,49 %
19.08.2021 18:32 20,1 C 20,0 C 17,8 C 69 % 1014,7 hPa 0,0 l/m 0 min 0 min 127 W/m 16,1 km/h (3 Bft) 95,74 %
19.08.2021 18:34 20,0 C 19,4 C 17,8 C 70 % 1014,8 hPa 0,0 l/m 0 min 0 min 112 W/m 12,9 km/h (3 Bft) 95,74 %
19.08.2021 18:36 20,0 C 19,4 C 17,8 C 70 % 1014,7 hPa 0,0 l/m 0 min 0 min 106 W/m 9,7 km/h (2 Bft) 95,65 %
19.08.2021 18:38 20,0 C 19,4 C 17,3 C 70 % 1014,7 hPa 0,0 l/m 0 min 0 min 113 W/m 16,1 km/h (3 Bft) 93,62 %
19.08.2021 18:40 19,9 C 19,4 C 17,3 C 70 % 1014,7 hPa 0,0 l/m 0 min 0 min 109 W/m 12,9 km/h (3 Bft) 95,74 %
19.08.2021 18:42 19,9 C 19,4 C 17,3 C 70 % 1014,7 hPa 0,0 l/m 0 min 0 min 100 W/m 12,9 km/h (3 Bft) 93,62 %
19.08.2021 18:44 19,9 C 19,4 C 17,3 C 70 % 1014,7 hPa 0,0 l/m 0 min 0 min 94 W/m 22,5 km/h (4 Bft) 95,74 %
19.08.2021 18:46 19,8 C 18,9 C 17,3 C 70 % 1014,7 hPa 0,0 l/m 0 min 0 min 93 W/m 16,1 km/h (3 Bft) 95,65 %
19.08.2021 18:48 19,8 C 18,9 C 17,3 C 71 % 1014,7 hPa 0,0 l/m 0 min 0 min 90 W/m 12,9 km/h (3 Bft) 95,74 %
19.08.2021 18:50 19,7 C 18,9 C 17,3 C 71 % 1014,7 hPa 0,0 l/m 0 min 0 min 78 W/m 16,1 km/h (3 Bft) 97,87 %
19.08.2021 18:52 19,7 C 18,9 C 17,3 C 71 % 1014,8 hPa 0,0 l/m 0 min 0 min 61 W/m 12,9 km/h (3 Bft) 100,00 %
19.08.2021 18:54 19,6 C 18,9 C 17,3 C 71 % 1014,7 hPa 0,0 l/m 0 min 0 min 53 W/m 16,1 km/h (3 Bft) 100,00 %
19.08.2021 18:56 19,6 C 18,9 C 17,3 C 71 % 1014,8 hPa 0,0 l/m 0 min 0 min 53 W/m 12,9 km/h (3 Bft) 100,00 %
19.08.2021 18:58 19,6 C 18,9 C 16,7 C 71 % 1014,8 hPa 0,0 l/m 0 min 0 min 48 W/m 9,7 km/h (2 Bft) 100,00 %
19.08.2021 19:00 19,5 C 18,9 C 16,7 C 72 % 1014,8 hPa 0,0 l/m 0 min 0 min 43 W/m 6,4 km/h (2 Bft) 100,00 %
19.08.2021 19:02 19,5 C 18,9 C 16,7 C 72 % 1014,7 hPa 0,0 l/m 0 min 0 min 40 W/m 9,7 km/h (2 Bft) 100,00 %
19.08.2021 19:04 19,5 C 18,9 C 16,7 C 72 % 1014,7 hPa 0,0 l/m 0 min 0 min 42 W/m 12,9 km/h (3 Bft) 100,00 %
19.08.2021 19:06 19,5 C 18,9 C 16,7 C 72 % 1014,7 hPa 0,0 l/m 0 min 0 min 49 W/m 12,9 km/h (3 Bft) 100,00 %
19.08.2021 19:08 19,5 C 18,9 C 16,7 C 72 % 1014,7 hPa 0,0 l/m 0 min 0 min 52 W/m 12,9 km/h (3 Bft) 97,87 %
19.08.2021 19:10 19,4 C 18,9 C 16,7 C 72 % 1014,7 hPa 0,0 l/m 0 min 0 min 46 W/m 12,9 km/h (3 Bft) 100,00 %
19.08.2021 19:12 19,4 C 18,9 C 16,7 C 73 % 1014,8 hPa 0,0 l/m 0 min 0 min 38 W/m 9,7 km/h (2 Bft) 100,00 %
19.08.2021 19:14 19,4 C 18,9 C 16,7 C 73 % 1014,8 hPa 0,0 l/m 0 min 0 min 30 W/m 6,4 km/h (2 Bft) 95,74 %
19.08.2021 19:16 19,3 C 18,9 C 16,7 C 73 % 1014,8 hPa 0,0 l/m 0 min 0 min 27 W/m 6,4 km/h (2 Bft) 95,74 %
19.08.2021 19:18 19,3 C 18,3 C 16,7 C 73 % 1014,7 hPa 0,0 l/m 0 min 0 min 26 W/m 6,4 km/h (2 Bft) 100,00 %
19.08.2021 19:20 19,3 C 18,3 C 16,7 C 73 % 1014,7 hPa 0,0 l/m 0 min 0 min 29 W/m 3,2 km/h (1 Bft) 100,00 %
19.08.2021 19:22 19,3 C 18,3 C 16,7 C 73 % 1014,7 hPa 0,0 l/m 0 min 0 min 32 W/m 3,2 km/h (1 Bft) 97,83 %
19.08.2021 19:24 19,3 C 18,3 C 16,7 C 74 % 1014,6 hPa 0,0 l/m 0 min 0 min 32 W/m 3,2 km/h (1 Bft) 100,00 %
19.08.2021 19:26 19,3 C 18,3 C 16,7 C 74 % 1014,6 hPa 0,0 l/m 0 min 0 min 36 W/m 3,2 km/h (1 Bft) 100,00 %
19.08.2021 19:28 19,3 C 18,3 C 16,7 C 74 % 1014,6 hPa 0,0 l/m 0 min 0 min 44 W/m 3,2 km/h (1 Bft) 100,00 %
19.08.2021 19:30 19,3 C 18,3 C 16,7 C 74 % 1014,6 hPa 0,0 l/m 0 min 0 min 54 W/m 3,2 km/h (1 Bft) 100,00 %
19.08.2021 19:32 19,3 C 18,9 C 16,7 C 74 % 1014,6 hPa 0,0 l/m 0 min 0 min 59 W/m 6,4 km/h (2 Bft) 100,00 %
19.08.2021 19:34 19,2 C 18,9 C 16,7 C 74 % 1014,6 hPa 0,0 l/m 0 min 0 min 61 W/m 3,2 km/h (1 Bft) 100,00 %
19.08.2021 19:36 19,2 C 18,9 C 16,7 C 74 % 1014,6 hPa 0,0 l/m 0 min 0 min 56 W/m 3,2 km/h (1 Bft) 100,00 %
19.08.2021 19:38 19,3 C 18,9 C 16,7 C 75 % 1014,6 hPa 0,0 l/m 0 min 0 min 56 W/m 3,2 km/h (1 Bft) 100,00 %
19.08.2021 19:40 19,3 C 18,9 C 16,7 C 75 % 1014,6 hPa 0,0 l/m 0 min 0 min 59 W/m 3,2 km/h (1 Bft) 100,00 %
19.08.2021 19:42 19,3 C 18,9 C 16,7 C 75 % 1014,6 hPa 0,0 l/m 0 min 0 min 59 W/m 3,2 km/h (1 Bft) 100,00 %
19.08.2021 19:44 19,3 C 18,9 C 16,7 C 75 % 1014,6 hPa 0,0 l/m 0 min 0 min 52 W/m 6,4 km/h (2 Bft) 100,00 %
19.08.2021 19:46 19,3 C 18,9 C 16,7 C 75 % 1014,6 hPa 0,0 l/m 0 min 0 min 40 W/m 6,4 km/h (2 Bft) 100,00 %
19.08.2021 19:48 19,2 C 18,9 C 16,7 C 75 % 1014,6 hPa 0,0 l/m 0 min 0 min 35 W/m 6,4 km/h (2 Bft) 100,00 %
19.08.2021 19:50 19,2 C 18,3 C 16,7 C 75 % 1014,6 hPa 0,0 l/m 0 min 0 min 34 W/m 3,2 km/h (1 Bft) 100,00 %
19.08.2021 19:52 19,2 C 18,3 C 16,7 C 75 % 1014,6 hPa 0,0 l/m 0 min 0 min 33 W/m 3,2 km/h (1 Bft) 100,00 %
19.08.2021 19:54 19,2 C 18,3 C 16,7 C 75 % 1014,6 hPa 0,0 l/m 0 min 0 min 30 W/m 3,2 km/h (1 Bft) 100,00 %
19.08.2021 19:56 19,2 C 18,3 C 16,7 C 76 % 1014,7 hPa 0,0 l/m 0 min 0 min 27 W/m 3,2 km/h (1 Bft) 100,00 %
19.08.2021 19:58 19,1 C 18,3 C 16,7 C 76 % 1014,6 hPa 0,0 l/m 0 min 0 min 25 W/m 3,2 km/h (1 Bft) 97,87 %
19.08.2021 20:00 19,1 C 18,3 C 16,7 C 75 % 1014,7 hPa 0,0 l/m 0 min 0 min 23 W/m 6,4 km/h (2 Bft) 100,00 %
19.08.2021 20:02 19,1 C 18,3 C 16,1 C 75 % 1014,7 hPa 0,0 l/m 0 min 0 min 17 W/m 9,7 km/h (2 Bft) 97,87 %
19.08.2021 20:04 19,0 C 18,3 C 16,1 C 75 % 1014,6 hPa 0,0 l/m 0 min 0 min 13 W/m 6,4 km/h (2 Bft) 100,00 %
19.08.2021 20:06 19,0 C 18,3 C 16,1 C 75 % 1014,6 hPa 0,0 l/m 0 min 0 min 12 W/m 6,4 km/h (2 Bft) 100,00 %
19.08.2021 20:08 19,0 C 18,3 C 16,1 C 75 % 1014,7 hPa 0,0 l/m 0 min 0 min 10 W/m 3,2 km/h (1 Bft) 97,83 %
19.08.2021 20:10 19,0 C 18,3 C 16,1 C 76 % 1014,7 hPa 0,0 l/m 0 min 0 min 8 W/m 3,2 km/h (1 Bft) 100,00 %
19.08.2021 20:12 19,0 C 18,3 C 16,1 C 75 % 1014,7 hPa 0,0 l/m 0 min 0 min 7 W/m 3,2 km/h (1 Bft) 97,87 %
19.08.2021 20:14 19,0 C 18,3 C 16,1 C 76 % 1014,7 hPa 0,0 l/m 0 min 0 min 7 W/m 3,2 km/h (1 Bft) 100,00 %
19.08.2021 20:16 18,9 C 17,8 C 16,1 C 76 % 1014,6 hPa 0,0 l/m 0 min 0 min 6 W/m 3,2 km/h (1 Bft) 97,87 %
19.08.2021 20:18 18,9 C 17,8 C 16,1 C 76 % 1014,7 hPa 0,0 l/m 0 min 0 min 5 W/m 3,2 km/h (1 Bft) 97,87 %
19.08.2021 20:20 18,9 C 17,8 C 16,1 C 76 % 1014,6 hPa 0,0 l/m 0 min 0 min 5 W/m 6,4 km/h (2 Bft) 97,87 %
19.08.2021 20:22 18,9 C 17,8 C 16,1 C 76 % 1014,6 hPa 0,0 l/m 0 min 0 min 5 W/m 3,2 km/h (1 Bft) 95,65 %
19.08.2021 20:24 18,9 C 17,8 C 16,1 C 76 % 1014,6 hPa 0,0 l/m 0 min 0 min 5 W/m 0,0 km/h (0 Bft) 97,87 %
19.08.2021 20:26 18,8 C 17,8 C 16,1 C 76 % 1014,6 hPa 0,0 l/m 0 min 0 min 5 W/m 3,2 km/h (1 Bft) 93,62 %
19.08.2021 20:28 18,8 C 17,8 C 16,1 C 76 % 1014,7 hPa 0,0 l/m 0 min 0 min 2 W/m 3,2 km/h (1 Bft) 95,74 %
19.08.2021 20:30 18,8 C 17,8 C 16,1 C 76 % 1014,7 hPa 0,0 l/m 0 min 0 min 0 W/m 3,2 km/h (1 Bft) 95,74 %
19.08.2021 20:32 18,8 C 17,8 C 16,1 C 77 % 1014,7 hPa 0,0 l/m 0 min 0 min 0 W/m 3,2 km/h (1 Bft) 93,48 %
19.08.2021 20:34 18,8 C 17,8 C 16,1 C 77 % 1014,7 hPa 0,0 l/m 0 min 0 min 0 W/m 3,2 km/h (1 Bft) 95,74 %
19.08.2021 20:36 18,7 C 17,8 C 16,1 C 77 % 1014,7 hPa 0,0 l/m 0 min 0 min 0 W/m 3,2 km/h (1 Bft) 95,74 %
19.08.2021 20:38 18,7 C 17,8 C 16,1 C 77 % 1014,7 hPa 0,0 l/m 0 min 0 min 0 W/m 3,2 km/h (1 Bft) 87,23 %
19.08.2021 20:40 18,7 C 17,8 C 16,1 C 77 % 1014,7 hPa 0,0 l/m 0 min 0 min 0 W/m 9,7 km/h (2 Bft) 95,74 %
19.08.2021 20:42 18,6 C 17,8 C 16,1 C 77 % 1014,7 hPa 0,0 l/m 0 min 0 min 0 W/m 9,7 km/h (2 Bft) 93,62 %
19.08.2021 20:44 18,6 C 17,8 C 16,1 C 77 % 1014,7 hPa 0,0 l/m 0 min 0 min 0 W/m 0,0 km/h (0 Bft) 91,49 %
19.08.2021 20:46 18,6 C 17,8 C 16,1 C 77 % 1014,8 hPa 0,0 l/m 0 min 0 min 0 W/m 3,2 km/h (1 Bft) 93,48 %
19.08.2021 20:48 18,6 C 17,8 C 16,1 C 77 % 1014,8 hPa 0,0 l/m 0 min 0 min 0 W/m 3,2 km/h (1 Bft) 93,62 %
19.08.2021 20:50 18,6 C 17,8 C 15,6 C 77 % 1014,8 hPa 0,0 l/m 0 min 0 min 0 W/m 3,2 km/h (1 Bft) 97,87 %
19.08.2021 20:52 18,6 C 17,8 C 15,6 C 78 % 1014,8 hPa 0,0 l/m 0 min 0 min 0 W/m 6,4 km/h (2 Bft) 93,62 %
19.08.2021 20:54 18,6 C 17,8 C 15,6 C 78 % 1014,8 hPa 0,0 l/m 0 min 0 min 0 W/m 3,2 km/h (1 Bft) 95,74 %
19.08.2021 20:56 18,5 C 17,8 C 15,6 C 78 % 1014,8 hPa 0,0 l/m 0 min 0 min 0 W/m 3,2 km/h (1 Bft) 95,65 %
19.08.2021 20:58 18,5 C 17,8 C 15,6 C 78 % 1014,8 hPa 0,0 l/m 0 min 0 min 0 W/m 3,2 km/h (1 Bft) 100,00 %
19.08.2021 21:00 18,5 C 17,8 C 15,6 C 78 % 1014,8 hPa 0,0 l/m 0 min 0 min 0 W/m 3,2 km/h (1 Bft) 97,87 %
19.08.2021 21:02 18,5 C 17,8 C 15,6 C 78 % 1014,8 hPa 0,0 l/m 0 min 0 min 0 W/m 0,0 km/h (0 Bft) 93,62 %
19.08.2021 21:04 18,5 C 17,8 C 15,6 C 78 % 1014,8 hPa 0,0 l/m 0 min 0 min 0 W/m 6,4 km/h (2 Bft) 95,74 %
19.08.2021 21:06 18,5 C 17,8 C 15,6 C 78 % 1014,9 hPa 0,0 l/m 0 min 0 min 0 W/m 0,0 km/h (0 Bft) 95,74 %
19.08.2021 21:08 18,4 C 17,2 C 15,6 C 79 % 1014,8 hPa 0,0 l/m 0 min 0 min 0 W/m 0,0 km/h (0 Bft) 93,48 %
19.08.2021 21:10 18,4 C 17,2 C 15,6 C 79 % 1014,8 hPa 0,0 l/m 0 min 0 min 0 W/m 3,2 km/h (1 Bft) 95,74 %
19.08.2021 21:12 18,4 C 17,2 C 15,6 C 79 % 1014,9 hPa 0,0 l/m 0 min 0 min 0 W/m 3,2 km/h (1 Bft) 93,62 %
19.08.2021 21:14 18,4 C 17,2 C 15,6 C 79 % 1014,9 hPa 0,0 l/m 0 min 0 min 0 W/m 3,2 km/h (1 Bft) 97,87 %
19.08.2021 21:16 18,4 C 17,2 C 15,6 C 79 % 1014,9 hPa 0,0 l/m 0 min 0 min 0 W/m 6,4 km/h (2 Bft) 97,87 %
19.08.2021 21:18 18,4 C 17,2 C 15,6 C 79 % 1014,8 hPa 0,0 l/m 0 min 0 min 0 W/m 3,2 km/h (1 Bft) 97,87 %
19.08.2021 21:20 18,4 C 17,2 C 15,6 C 79 % 1014,9 hPa 0,0 l/m 0 min 0 min 0 W/m 3,2 km/h (1 Bft) 95,65 %
19.08.2021 21:22 18,4 C 17,2 C 15,6 C 79 % 1014,9 hPa 0,0 l/m 0 min 0 min 0 W/m 3,2 km/h (1 Bft) 97,87 %
19.08.2021 21:24 18,3 C 17,2 C 15,6 C 79 % 1015,0 hPa 0,0 l/m 0 min 0 min 0 W/m 6,4 km/h (2 Bft) 97,87 %
19.08.2021 21:26 18,3 C 17,2 C 15,6 C 79 % 1015,0 hPa 0,0 l/m 0 min 0 min 0 W/m 3,2 km/h (1 Bft) 95,74 %
19.08.2021 21:28 18,3 C 17,2 C 15,6 C 79 % 1014,9 hPa 0,0 l/m 0 min 0 min 0 W/m 0,0 km/h (0 Bft) 97,87 %
19.08.2021 21:30 18,3 C 17,2 C 15,6 C 79 % 1015,0 hPa 0,0 l/m 0 min 0 min 0 W/m 6,4 km/h (2 Bft) 93,62 %
19.08.2021 21:32 18,3 C 17,2 C 15,6 C 79 % 1015,0 hPa 0,0 l/m 0 min 0 min 0 W/m 6,4 km/h (2 Bft) 95,74 %
19.08.2021 21:34 18,3 C 17,2 C 15,6 C 79 % 1015,0 hPa 0,0 l/m 0 min 0 min 0 W/m 6,4 km/h (2 Bft) 97,87 %
19.08.2021 21:36 18,3 C 17,2 C 15,6 C 79 % 1015,1 hPa 0,0 l/m 0 min 0 min 0 W/m 3,2 km/h (1 Bft) 97,87 %
19.08.2021 21:38 18,2 C 17,2 C 15,6 C 80 % 1015,0 hPa 0,0 l/m 0 min 0 min 0 W/m 3,2 km/h (1 Bft) 97,87 %
19.08.2021 21:40 18,2 C 17,2 C 15,6 C 80 % 1015,0 hPa 0,0 l/m 0 min 0 min 0 W/m 3,2 km/h (1 Bft) 97,87 %
19.08.2021 21:42 18,3 C 17,2 C 15,6 C 80 % 1015,1 hPa 0,0 l/m 0 min 0 min 0 W/m 3,2 km/h (1 Bft) 97,83 %
19.08.2021 21:44 18,2 C 17,2 C 15,6 C 80 % 1015,1 hPa 0,0 l/m 0 min 0 min 0 W/m 3,2 km/h (1 Bft) 97,87 %
19.08.2021 21:46 18,2 C 17,2 C 15,6 C 80 % 1015,1 hPa 0,0 l/m 0 min 0 min 0 W/m 3,2 km/h (1 Bft) 97,87 %
19.08.2021 21:48 18,2 C 17,2 C 15,6 C 80 % 1015,1 hPa 0,0 l/m 0 min 0 min 0 W/m 3,2 km/h (1 Bft) 97,87 %
19.08.2021 21:50 18,1 C 17,2 C 15,6 C 80 % 1015,1 hPa 0,0 l/m 0 min 0 min 0 W/m 6,4 km/h (2 Bft) 100,00 %
19.08.2021 21:52 18,1 C 17,2 C 15,6 C 80 % 1015,1 hPa 0,0 l/m 0 min 0 min 0 W/m 3,2 km/h (1 Bft) 100,00 %
19.08.2021 21:54 18,1 C 17,2 C 15,6 C 80 % 1015,1 hPa 0,0 l/m 0 min 0 min 0 W/m 3,2 km/h (1 Bft) 97,83 %
19.08.2021 21:56 18,1 C 17,2 C 15,6 C 80 % 1015,1 hPa 0,0 l/m 0 min 0 min 0 W/m 3,2 km/h (1 Bft) 97,87 %
19.08.2021 21:58 18,1 C 17,2 C 15,6 C 80 % 1015,1 hPa 0,0 l/m 0 min 0 min 0 W/m 3,2 km/h (1 Bft) 100,00 %
19.08.2021 22:00 18,1 C 17,2 C 15,6 C 80 % 1015,1 hPa 0,0 l/m 0 min 0 min 0 W/m 9,7 km/h (2 Bft) 97,87 %
19.08.2021 22:02 18,0 C 17,2 C 15,6 C 80 % 1015,1 hPa 0,0 l/m 0 min 0 min 0 W/m 6,4 km/h (2 Bft) 100,00 %
19.08.2021 22:04 18,1 C 17,2 C 15,6 C 81 % 1015,1 hPa 0,0 l/m 0 min 0 min 0 W/m 3,2 km/h (1 Bft) 97,87 %
19.08.2021 22:06 18,1 C 17,2 C 15,6 C 81 % 1015,1 hPa 0,0 l/m 0 min 0 min 0 W/m 6,4 km/h (2 Bft) 95,65 %
19.08.2021 22:08 18,0 C 17,2 C 15,6 C 81 % 1015,2 hPa 0,0 l/m 0 min 0 min 0 W/m 6,4 km/h (2 Bft) 100,00 %
19.08.2021 22:10 18,0 C 17,2 C 15,6 C 81 % 1015,1 hPa 0,0 l/m 0 min 0 min 0 W/m 6,4 km/h (2 Bft) 100,00 %
19.08.2021 22:12 18,0 C 17,2 C 15,6 C 81 % 1015,2 hPa 0,0 l/m 0 min 0 min 0 W/m 3,2 km/h (1 Bft) 97,87 %
19.08.2021 22:14 18,0 C 17,2 C 15,6 C 81 % 1015,2 hPa 0,0 l/m 0 min 0 min 0 W/m 3,2 km/h (1 Bft) 97,87 %
19.08.2021 22:16 18,1 C 17,2 C 15,6 C 81 % 1015,2 hPa 0,0 l/m 0 min 0 min 0 W/m 0,0 km/h (0 Bft) 97,87 %
19.08.2021 22:18 18,0 C 17,2 C 15,6 C 81 % 1015,2 hPa 0,0 l/m 0 min 0 min 0 W/m 0,0 km/h (0 Bft) 97,83 %
19.08.2021 22:20 18,0 C 17,2 C 15,6 C 81 % 1015,2 hPa 0,0 l/m 0 min 0 min 0 W/m 3,2 km/h (1 Bft) 97,87 %
19.08.2021 22:22 18,0 C 17,2 C 15,6 C 81 % 1015,3 hPa 0,0 l/m 0 min 0 min 0 W/m 3,2 km/h (1 Bft) 97,87 %
19.08.2021 22:24 18,0 C 17,2 C 15,6 C 81 % 1015,2 hPa 0,0 l/m 0 min 0 min 0 W/m 6,4 km/h (2 Bft) 97,87 %
19.08.2021 22:26 18,0 C 17,2 C 15,6 C 81 % 1015,2 hPa 0,0 l/m 0 min 0 min 0 W/m 3,2 km/h (1 Bft) 97,87 %
19.08.2021 22:28 18,0 C 17,2 C 15,6 C 81 % 1015,2 hPa 0,0 l/m 0 min 0 min 0 W/m 3,2 km/h (1 Bft) 97,83 %
19.08.2021 22:30 18,0 C 17,2 C 15,6 C 81 % 1015,2 hPa 0,0 l/m 0 min 0 min 0 W/m 3,2 km/h (1 Bft) 97,87 %
19.08.2021 22:32 18,0 C 17,2 C 15,6 C 81 % 1015,2 hPa 0,0 l/m 0 min 0 min 0 W/m 3,2 km/h (1 Bft) 97,87 %
19.08.2021 22:34 18,0 C 17,2 C 15,6 C 81 % 1015,2 hPa 0,0 l/m 0 min 0 min 0 W/m 3,2 km/h (1 Bft) 97,87 %
19.08.2021 22:36 18,0 C 16,7 C 15,6 C 81 % 1015,2 hPa 0,0 l/m 0 min 0 min 0 W/m 3,2 km/h (1 Bft) 97,87 %
19.08.2021 22:38 18,0 C 16,7 C 15,6 C 81 % 1015,2 hPa 0,0 l/m 0 min 0 min 0 W/m 0,0 km/h (0 Bft) 95,74 %
19.08.2021 22:40 17,9 C 16,7 C 15,6 C 81 % 1015,2 hPa 0,0 l/m 0 min 0 min 0 W/m 3,2 km/h (1 Bft) 97,83 %
19.08.2021 22:42 17,9 C 16,7 C 15,6 C 81 % 1015,2 hPa 0,0 l/m 0 min 0 min 0 W/m 3,2 km/h (1 Bft) 95,74 %
19.08.2021 22:44 17,9 C 16,7 C 15,0 C 81 % 1015,2 hPa 0,0 l/m 0 min 0 min 0 W/m 6,4 km/h (2 Bft) 97,87 %
19.08.2021 22:46 17,9 C 16,7 C 15,0 C 82 % 1015,2 hPa 0,0 l/m 0 min 0 min 0 W/m 3,2 km/h (1 Bft) 95,74 %
19.08.2021 22:48 17,9 C 16,7 C 15,0 C 82 % 1015,2 hPa 0,0 l/m 0 min 0 min 0 W/m 3,2 km/h (1 Bft) 100,00 %
19.08.2021 22:50 17,9 C 16,7 C 15,0 C 82 % 1015,2 hPa 0,0 l/m 0 min 0 min 0 W/m 0,0 km/h (0 Bft) 100,00 %
19.08.2021 22:52 17,9 C 16,7 C 15,0 C 82 % 1015,2 hPa 0,0 l/m 0 min 0 min 0 W/m 3,2 km/h (1 Bft) 97,83 %
19.08.2021 22:54 17,9 C 16,7 C 15,0 C 82 % 1015,2 hPa 0,0 l/m 0 min 0 min 0 W/m 3,2 km/h (1 Bft) 100,00 %
19.08.2021 22:56 17,8 C 16,7 C 15,0 C 82 % 1015,3 hPa 0,0 l/m 0 min 0 min 0 W/m 3,2 km/h (1 Bft) 100,00 %
19.08.2021 22:58 17,8 C 16,7 C 15,0 C 82 % 1015,3 hPa 0,0 l/m 0 min 0 min 0 W/m 6,4 km/h (2 Bft) 100,00 %
19.08.2021 23:00 17,8 C 16,7 C 15,0 C 82 % 1015,3 hPa 0,0 l/m 0 min 0 min 0 W/m 0,0 km/h (0 Bft) 97,87 %
19.08.2021 23:02 17,8 C 16,7 C 15,0 C 82 % 1015,3 hPa 0,0 l/m 0 min 0 min 0 W/m 0,0 km/h (0 Bft) 97,92 %
19.08.2021 23:04 17,8 C 16,7 C 15,0 C 82 % 1015,3 hPa 0,0 l/m 0 min 0 min 0 W/m 3,2 km/h (1 Bft) 100,00 %
19.08.2021 23:06 17,8 C 16,7 C 15,0 C 83 % 1015,3 hPa 0,0 l/m 0 min 0 min 0 W/m 6,4 km/h (2 Bft) 100,00 %
19.08.2021 23:08 17,8 C 16,7 C 15,0 C 82 % 1015,3 hPa 0,0 l/m 0 min 0 min 0 W/m 3,2 km/h (1 Bft) 100,00 %
19.08.2021 23:10 17,7 C 16,7 C 15,0 C 82 % 1015,3 hPa 0,0 l/m 0 min 0 min 0 W/m 3,2 km/h (1 Bft) 100,00 %
19.08.2021 23:12 17,7 C 16,7 C 15,0 C 82 % 1015,3 hPa 0,0 l/m 0 min 0 min 0 W/m 0,0 km/h (0 Bft) 100,00 %
19.08.2021 23:14 17,6 C 16,7 C 15,0 C 83 % 1015,3 hPa 0,0 l/m 0 min 0 min 0 W/m 3,2 km/h (1 Bft) 97,87 %
19.08.2021 23:16 17,6 C 16,7 C 15,0 C 83 % 1015,3 hPa 0,0 l/m 0 min 0 min 0 W/m 3,2 km/h (1 Bft) 97,83 %
19.08.2021 23:18 17,6 C 16,7 C 15,0 C 83 % 1015,3 hPa 0,0 l/m 0 min 0 min 0 W/m 3,2 km/h (1 Bft) 97,87 %
19.08.2021 23:20 17,6 C 16,7 C 15,0 C 83 % 1015,3 hPa 0,0 l/m 0 min 0 min 0 W/m 3,2 km/h (1 Bft) 97,87 %
19.08.2021 23:22 17,6 C 16,7 C 15,0 C 83 % 1015,3 hPa 0,0 l/m 0 min 0 min 0 W/m 3,2 km/h (1 Bft) 97,87 %
19.08.2021 23:24 17,6 C 16,7 C 15,0 C 83 % 1015,3 hPa 0,0 l/m 0 min 0 min 0 W/m 0,0 km/h (0 Bft) 97,87 %
19.08.2021 23:26 17,5 C 16,1 C 15,0 C 83 % 1015,3 hPa 0,0 l/m 0 min 0 min 0 W/m 3,2 km/h (1 Bft) 97,83 %
19.08.2021 23:28 17,5 C 16,1 C 15,0 C 83 % 1015,4 hPa 0,0 l/m 0 min 0 min 0 W/m 3,2 km/h (1 Bft) 97,87 %
19.08.2021 23:30 17,5 C 16,1 C 14,5 C 83 % 1015,3 hPa 0,0 l/m 0 min 0 min 0 W/m 0,0 km/h (0 Bft) 95,74 %
19.08.2021 23:32 17,5 C 16,1 C 14,5 C 83 % 1015,4 hPa 0,0 l/m 0 min 0 min 0 W/m 0,0 km/h (0 Bft) 97,92 %
19.08.2021 23:34 17,5 C 16,1 C 14,5 C 83 % 1015,4 hPa 0,0 l/m 0 min 0 min 0 W/m 0,0 km/h (0 Bft) 95,74 %
19.08.2021 23:36 17,4 C 16,1 C 14,5 C 84 % 1015,4 hPa 0,0 l/m 0 min 0 min 0 W/m 0,0 km/h (0 Bft) 97,87 %
19.08.2021 23:38 17,4 C 16,1 C 14,5 C 84 % 1015,4 hPa 0,0 l/m 0 min 0 min 0 W/m 0,0 km/h (0 Bft) 95,65 %
19.08.2021 23:40 17,4 C 16,1 C 14,5 C 84 % 1015,4 hPa 0,0 l/m 0 min 0 min 0 W/m 0,0 km/h (0 Bft) 95,74 %
19.08.2021 23:42 17,4 C 16,1 C 14,5 C 84 % 1015,4 hPa 0,0 l/m 0 min 0 min 0 W/m 0,0 km/h (0 Bft) 97,87 %
19.08.2021 23:44 17,4 C 16,1 C 14,5 C 84 % 1015,4 hPa 0,0 l/m 0 min 0 min 0 W/m 0,0 km/h (0 Bft) 97,87 %
19.08.2021 23:46 17,3 C 16,1 C 14,5 C 84 % 1015,4 hPa 0,0 l/m 0 min 0 min 0 W/m 0,0 km/h (0 Bft) 93,62 %
19.08.2021 23:48 17,3 C 16,1 C 14,5 C 84 % 1015,4 hPa 0,0 l/m 0 min 0 min 0 W/m 0,0 km/h (0 Bft) 95,74 %
19.08.2021 23:50 17,3 C 16,1 C 14,5 C 84 % 1015,3 hPa 0,0 l/m 0 min 0 min 0 W/m 3,2 km/h (1 Bft) 95,65 %
19.08.2021 23:52 17,3 C 15,6 C 14,5 C 84 % 1015,3 hPa 0,0 l/m 0 min 0 min 0 W/m 3,2 km/h (1 Bft) 95,74 %
19.08.2021 23:54 17,2 C 15,6 C 13,9 C 84 % 1015,4 hPa 0,0 l/m 0 min 0 min 0 W/m 3,2 km/h (1 Bft) 95,74 %
19.08.2021 23:56 17,1 C 15,6 C 13,9 C 85 % 1015,4 hPa 0,0 l/m 0 min 0 min 0 W/m 0,0 km/h (0 Bft) 93,62 %
19.08.2021 23:58 17,1 C 15,6 C 13,9 C 85 % 1015,3 hPa 0,0 l/m 0 min 0 min 0 W/m 0,0 km/h (0 Bft) 93,62 %
_ Min-Zeit 07:12 04:48 23:54 18:30 05:50 - - - - 05:20 00:02
Minimum _ 16,4 C 15,6 C 13,9 C 69 % 1013,5 hPa - - - - 0,0 km/h (0 Bft) 11,76 %
_ Max-Zeit 17:42 17:02 15:04 05:32 23:28 04:48 11:56 04:24 17:02 10:54 00:34
Maximum _ 21,0 C 25,0 C 19,5 C 96 % 1015,4 hPa 0,2 l/m 2 min 2 min 686 W/m 25,7 km/h
S-SO (4 Bft)
100,00 %
Durchschnitt _ 18,1 C 17,7 C 16,4 C 85 % 1014,5 hPa #0,2 l/m #1:38 h #10 min. 155 W/m 9,0 km/h (2 Bft) 97,35 %
© 2021 W. Hausmann